Time,TemperatureF,DewpointF,PressureIn,WindDirection,WindDirectionDegrees,WindSpeedMPH,WindSpeedGustMPH,Humidity,HourlyPrecipIn,Conditions,Clouds,dailyrainin,SoftwareType,DateUTC
2013-07-07 00:00:00,65.9,47.8,29.76,NW,315,4.0,5.1,52,0.00,,,0.00,WUHU216HW,2013-07-07 06:00:00,
2013-07-07 00:01:00,65.7,47.1,29.76,NW,315,4.5,5.1,51,0.00,,,0.00,WUHU216HW,2013-07-07 06:01:00,
2013-07-07 00:05:00,65.5,47.4,29.76,NW,315,2.7,6.5,52,0.00,,,0.00,WUHU216HW,2013-07-07 06:05:00,
2013-07-07 00:06:00,65.3,47.3,29.76,WNW,293,2.9,6.5,52,0.00,,,0.00,WUHU216HW,2013-07-07 06:06:00,
2013-07-07 00:10:00,65.0,46.9,29.76,NNW,338,6.3,6.5,52,0.00,,,0.00,WUHU216HW,2013-07-07 06:10:00,
2013-07-07 00:11:00,64.8,46.7,29.76,NNW,338,8.9,8.9,52,0.00,,,0.00,WUHU216HW,2013-07-07 06:11:00,
2013-07-07 00:15:00,65.0,46.4,29.76,NNW,338,8.5,12.1,51,0.00,,,0.00,WUHU216HW,2013-07-07 06:15:00,
2013-07-07 00:16:00,65.2,46.5,29.76,NNW,338,6.9,12.1,51,0.00,,,0.00,WUHU216HW,2013-07-07 06:16:00,
2013-07-07 00:17:00,65.2,46.5,29.76,NNW,338,7.2,12.1,51,0.00,,,0.00,WUHU216HW,2013-07-07 06:17:00,
2013-07-07 00:20:00,65.2,46.5,29.76,NW,315,7.2,12.1,51,0.00,,,0.00,WUHU216HW,2013-07-07 06:20:00,
2013-07-07 00:21:00,65.2,46.5,29.76,NW,315,6.9,12.1,51,0.00,,,0.00,WUHU216HW,2013-07-07 06:21:00,
2013-07-07 00:22:00,65.2,46.5,29.76,NW,315,5.6,12.1,51,0.00,,,0.00,WUHU216HW,2013-07-07 06:22:00,
2013-07-07 00:26:00,65.2,46.5,29.77,WNW,293,4.0,8.7,51,0.00,,,0.00,WUHU216HW,2013-07-07 06:26:00,
2013-07-07 00:27:00,65.2,46.5,29.77,NW,315,3.8,8.7,51,0.00,,,0.00,WUHU216HW,2013-07-07 06:27:00,
2013-07-07 00:31:00,65.2,46.5,29.77,WSW,248,1.6,6.3,51,0.00,,,0.00,WUHU216HW,2013-07-07 06:31:00,
2013-07-07 00:32:00,65.2,46.5,29.77,SSE,158,1.8,6.3,51,0.00,,,0.00,WUHU216HW,2013-07-07 06:32:00,
2013-07-07 00:36:00,65.2,46.5,29.77,WSW,248,2.0,3.8,51,0.00,,,0.00,WUHU216HW,2013-07-07 06:36:00,
2013-07-07 00:37:00,65.2,46.5,29.77,WSW,248,3.1,3.8,51,0.00,,,0.00,WUHU216HW,2013-07-07 06:37:00,
2013-07-07 00:41:00,65.2,46.5,29.77,NE,45,0.0,4.9,51,0.00,,,0.00,WUHU216HW,2013-07-07 06:41:00,
2013-07-07 00:42:00,65.2,46.5,29.77,WSW,248,0.9,4.9,51,0.00,,,0.00,WUHU216HW,2013-07-07 06:42:00,
2013-07-07 00:46:00,65.5,46.9,29.77,SSE,158,1.6,4.9,51,0.00,,,0.00,WUHU216HW,2013-07-07 06:46:00,
2013-07-07 00:47:00,65.5,46.9,29.77,SE,135,1.8,4.9,51,0.00,,,0.00,WUHU216HW,2013-07-07 06:47:00,
2013-07-07 00:52:00,65.9,47.3,29.77,South,180,5.1,6.3,51,0.00,,,0.00,WUHU216HW,2013-07-07 06:52:00,
2013-07-07 00:53:00,65.9,47.3,29.77,SSE,158,4.0,6.3,51,0.00,,,0.00,WUHU216HW,2013-07-07 06:53:00,
2013-07-07 00:57:00,65.9,47.3,29.76,West,270,1.1,6.3,51,0.00,,,0.00,WUHU216HW,2013-07-07 06:57:00,
2013-07-07 00:58:00,65.9,47.3,29.77,NE,45,0.0,6.3,51,0.00,,,0.00,WUHU216HW,2013-07-07 06:58:00,
2013-07-07 01:02:00,65.7,47.1,29.76,SSE,158,0.4,4.0,51,0.00,,,0.00,WUHU216HW,2013-07-07 07:02:00,
2013-07-07 01:03:00,65.7,47.1,29.76,South,180,0.0,3.6,51,0.00,,,0.00,WUHU216HW,2013-07-07 07:03:00,
2013-07-07 01:07:00,65.5,47.4,29.77,East,90,2.0,2.0,52,0.00,,,0.00,WUHU216HW,2013-07-07 07:07:00,
2013-07-07 01:08:00,65.3,47.7,29.77,ENE,68,1.1,2.0,53,0.00,,,0.00,WUHU216HW,2013-07-07 07:08:00,
2013-07-07 01:12:00,65.2,47.5,29.77,SE,135,2.9,4.0,53,0.00,,,0.00,WUHU216HW,2013-07-07 07:12:00,
2013-07-07 01:13:00,65.2,47.1,29.77,SE,135,2.0,4.0,52,0.00,,,0.00,WUHU216HW,2013-07-07 07:13:00,
2013-07-07 01:17:00,65.2,48.1,29.77,SE,135,6.0,7.2,54,0.00,,,0.00,WUHU216HW,2013-07-07 07:17:00,
2013-07-07 01:18:00,65.3,48.3,29.76,SSE,158,5.8,7.2,54,0.00,,,0.00,WUHU216HW,2013-07-07 07:18:00,
2013-07-07 01:22:00,65.5,48.4,29.77,South,180,4.5,7.2,54,0.00,,,0.00,WUHU216HW,2013-07-07 07:22:00,
2013-07-07 01:23:00,65.5,48.4,29.77,South,180,4.7,7.2,54,0.00,,,0.00,WUHU216HW,2013-07-07 07:23:00,
2013-07-07 01:24:00,65.5,47.9,29.77,SSE,158,5.4,7.2,53,0.00,,,0.00,WUHU216HW,2013-07-07 07:24:00,
2013-07-07 01:28:00,65.7,48.6,29.77,SW,225,5.6,7.2,54,0.00,,,0.00,WUHU216HW,2013-07-07 07:28:00,
2013-07-07 01:29:00,65.7,48.6,29.77,SSE,158,6.3,7.2,54,0.00,,,0.00,WUHU216HW,2013-07-07 07:29:00,
2013-07-07 01:33:00,65.7,49.1,29.76,SSW,203,7.6,10.7,55,0.00,,,0.00,WUHU216HW,2013-07-07 07:33:00,
2013-07-07 01:34:00,65.7,49.1,29.76,South,180,8.1,10.7,55,0.00,,,0.00,WUHU216HW,2013-07-07 07:34:00,
2013-07-07 01:38:00,65.9,49.2,29.76,South,180,7.6,10.7,55,0.00,,,0.00,WUHU216HW,2013-07-07 07:38:00,
2013-07-07 01:39:00,65.9,49.2,29.76,South,180,9.8,11.0,55,0.00,,,0.00,WUHU216HW,2013-07-07 07:39:00,
2013-07-07 01:43:00,65.9,49.2,29.76,South,180,8.3,11.4,55,0.00,,,0.00,WUHU216HW,2013-07-07 07:43:00,
2013-07-07 01:44:00,65.9,49.2,29.76,SSE,158,10.1,11.4,55,0.00,,,0.00,WUHU216HW,2013-07-07 07:44:00,
2013-07-07 01:48:00,65.9,49.2,29.76,SSW,203,9.6,11.4,55,0.00,,,0.00,WUHU216HW,2013-07-07 07:48:00,
2013-07-07 01:49:00,65.9,49.2,29.76,SSW,203,9.4,11.4,55,0.00,,,0.00,WUHU216HW,2013-07-07 07:49:00,
2013-07-07 01:53:00,65.7,49.1,29.76,SSW,203,8.7,10.7,55,0.00,,,0.00,WUHU216HW,2013-07-07 07:53:00,
2013-07-07 01:54:00,65.7,49.1,29.76,SSW,203,7.6,10.3,55,0.00,,,0.00,WUHU216HW,2013-07-07 07:54:00,
2013-07-07 01:55:00,65.7,49.1,29.76,SSW,203,6.0,10.1,55,0.00,,,0.00,WUHU216HW,2013-07-07 07:55:00,
2013-07-07 01:58:00,65.7,49.5,29.77,South,180,7.8,9.6,56,0.00,,,0.00,WUHU216HW,2013-07-07 07:58:00,
2013-07-07 01:59:00,65.5,49.3,29.77,South,180,8.5,8.9,56,0.00,,,0.00,WUHU216HW,2013-07-07 07:59:00,
2013-07-07 02:00:00,65.7,49.5,29.77,SSW,203,6.0,8.9,56,0.00,,,0.00,WUHU216HW,2013-07-07 08:00:00,
2013-07-07 02:03:00,65.5,49.3,29.77,South,180,3.4,8.9,56,0.00,,,0.00,WUHU216HW,2013-07-07 08:03:00,
2013-07-07 02:04:00,65.5,49.3,29.77,South,180,2.9,8.9,56,0.00,,,0.00,WUHU216HW,2013-07-07 08:04:00,
2013-07-07 02:05:00,65.5,48.9,29.77,South,180,4.0,8.9,55,0.00,,,0.00,WUHU216HW,2013-07-07 08:05:00,
2013-07-07 02:09:00,65.5,48.9,29.77,SSW,203,3.8,8.9,55,0.00,,,0.00,WUHU216HW,2013-07-07 08:09:00,
2013-07-07 02:10:00,65.5,48.9,29.77,SSW,203,2.9,6.7,55,0.00,,,0.00,WUHU216HW,2013-07-07 08:10:00,
2013-07-07 02:11:00,65.5,49.3,29.77,SSW,203,4.5,6.0,56,0.00,,,0.00,WUHU216HW,2013-07-07 08:11:00,
2013-07-07 02:14:00,65.3,49.1,29.77,SSW,203,5.4,6.0,56,0.00,,,0.00,WUHU216HW,2013-07-07 08:14:00,
2013-07-07 02:15:00,65.3,49.1,29.77,South,180,2.5,6.0,56,0.00,,,0.00,WUHU216HW,2013-07-07 08:15:00,
2013-07-07 02:16:00,65.3,49.1,29.77,SSW,203,5.1,6.0,56,0.00,,,0.00,WUHU216HW,2013-07-07 08:16:00,
2013-07-07 02:19:00,65.2,49.0,29.77,SSW,203,1.6,6.0,56,0.00,,,0.00,WUHU216HW,2013-07-07 08:19:00,
2013-07-07 02:20:00,65.2,49.0,29.77,South,180,2.5,6.0,56,0.00,,,0.00,WUHU216HW,2013-07-07 08:20:00,
2013-07-07 02:21:00,65.2,49.0,29.77,SSE,158,4.0,6.0,56,0.00,,,0.00,WUHU216HW,2013-07-07 08:21:00,
2013-07-07 02:24:00,65.2,49.5,29.77,South,180,5.1,6.3,57,0.00,,,0.00,WUHU216HW,2013-07-07 08:24:00,
2013-07-07 02:25:00,65.0,48.8,29.77,South,180,5.1,6.3,56,0.00,,,0.00,WUHU216HW,2013-07-07 08:25:00,
2013-07-07 02:26:00,65.0,49.3,29.77,SSE,158,5.1,6.3,57,0.00,,,0.00,WUHU216HW,2013-07-07 08:26:00,
2013-07-07 02:29:00,64.8,49.2,29.77,South,180,3.4,6.3,57,0.00,,,0.00,WUHU216HW,2013-07-07 08:29:00,
2013-07-07 02:30:00,64.8,49.2,29.77,South,180,3.4,6.3,57,0.00,,,0.00,WUHU216HW,2013-07-07 08:30:00,
2013-07-07 02:31:00,64.8,49.2,29.77,South,180,3.6,6.3,57,0.00,,,0.00,WUHU216HW,2013-07-07 08:31:00,
2013-07-07 02:34:00,64.6,49.0,29.77,South,180,0.0,5.1,57,0.00,,,0.00,WUHU216HW,2013-07-07 08:34:00,
2013-07-07 02:35:00,64.6,49.0,29.77,SW,225,0.4,5.1,57,0.00,,,0.00,WUHU216HW,2013-07-07 08:35:00,
2013-07-07 02:36:00,64.4,48.8,29.77,SW,225,0.4,5.1,57,0.00,,,0.00,WUHU216HW,2013-07-07 08:36:00,
2013-07-07 02:39:00,64.3,48.2,29.77,West,270,1.8,3.6,56,0.00,,,0.00,WUHU216HW,2013-07-07 08:39:00,
2013-07-07 02:40:00,64.1,48.0,29.77,NW,315,1.8,3.6,56,0.00,,,0.00,WUHU216HW,2013-07-07 08:40:00,
2013-07-07 02:41:00,64.1,48.0,29.77,NW,315,1.1,3.6,56,0.00,,,0.00,WUHU216HW,2013-07-07 08:41:00,
2013-07-07 02:45:00,63.9,48.2,29.77,SW,225,0.9,2.0,57,0.00,,,0.00,WUHU216HW,2013-07-07 08:45:00,
2013-07-07 02:46:00,63.7,48.2,29.77,WSW,248,0.7,2.0,57,0.00,,,0.00,WUHU216HW,2013-07-07 08:46:00,
2013-07-07 02:47:00,63.7,48.2,29.77,WNW,293,1.3,2.0,57,0.00,,,0.00,WUHU216HW,2013-07-07 08:47:00,
2013-07-07 02:50:00,63.5,48.4,29.77,WSW,248,1.1,2.0,58,0.00,,,0.00,WUHU216HW,2013-07-07 08:50:00,
2013-07-07 02:51:00,63.4,48.2,29.77,WSW,248,1.8,1.8,58,0.00,,,0.00,WUHU216HW,2013-07-07 08:51:00,
2013-07-07 02:52:00,63.4,48.2,29.77,WSW,248,2.7,2.7,58,0.00,,,0.00,WUHU216HW,2013-07-07 08:52:00,
2013-07-07 02:55:00,63.0,49.0,29.77,SW,225,4.0,4.5,60,0.00,,,0.00,WUHU216HW,2013-07-07 08:55:00,
2013-07-07 02:56:00,63.0,49.0,29.77,SW,225,4.0,4.5,60,0.00,,,0.00,WUHU216HW,2013-07-07 08:56:00,
2013-07-07 02:57:00,63.0,49.3,29.77,SW,225,4.7,4.7,61,0.00,,,0.00,WUHU216HW,2013-07-07 08:57:00,
2013-07-07 03:00:00,62.8,49.1,29.77,SW,225,4.7,4.9,61,0.00,,,0.00,WUHU216HW,2013-07-07 09:00:00,
2013-07-07 03:01:00,62.8,49.1,29.77,SW,225,4.7,4.9,61,0.00,,,0.00,WUHU216HW,2013-07-07 09:01:00,
2013-07-07 03:02:00,62.8,49.6,29.77,SW,225,4.0,4.9,62,0.00,,,0.00,WUHU216HW,2013-07-07 09:02:00,
2013-07-07 03:03:00,62.8,49.6,29.77,SW,225,4.0,4.9,62,0.00,,,0.00,WUHU216HW,2013-07-07 09:03:00,
2013-07-07 03:06:00,62.6,49.4,29.77,SW,225,4.7,4.9,62,0.00,,,0.00,WUHU216HW,2013-07-07 09:06:00,
2013-07-07 03:07:00,62.6,49.4,29.77,SW,225,3.6,4.9,62,0.00,,,0.00,WUHU216HW,2013-07-07 09:07:00,
2013-07-07 03:08:00,62.6,49.4,29.77,SW,225,4.3,4.9,62,0.00,,,0.00,WUHU216HW,2013-07-07 09:08:00,
2013-07-07 03:11:00,62.5,49.2,29.77,WSW,248,4.3,4.7,62,0.00,,,0.00,WUHU216HW,2013-07-07 09:11:00,
2013-07-07 03:12:00,62.3,49.5,29.77,WSW,248,4.0,4.7,63,0.00,,,0.00,WUHU216HW,2013-07-07 09:12:00,
2013-07-07 03:13:00,62.3,49.2,29.77,WSW,248,2.7,4.7,62,0.00,,,0.00,WUHU216HW,2013-07-07 09:13:00,
2013-07-07 03:16:00,62.1,49.8,29.77,North,0,2.5,4.7,64,0.00,,,0.00,WUHU216HW,2013-07-07 09:16:00,
2013-07-07 03:17:00,61.9,49.6,29.77,NNE,23,3.4,4.7,64,0.00,,,0.00,WUHU216HW,2013-07-07 09:17:00,
2013-07-07 03:18:00,61.7,49.4,29.77,North,0,1.1,4.3,64,0.00,,,0.00,WUHU216HW,2013-07-07 09:18:00,
2013-07-07 03:21:00,61.4,49.5,29.77,North,0,2.0,4.0,65,0.00,,,0.00,WUHU216HW,2013-07-07 09:21:00,
2013-07-07 03:22:00,61.4,49.5,29.77,North,0,2.5,3.4,65,0.00,,,0.00,WUHU216HW,2013-07-07 09:22:00,
2013-07-07 03:23:00,61.2,49.4,29.77,North,0,2.0,3.4,65,0.00,,,0.00,WUHU216HW,2013-07-07 09:23:00,
2013-07-07 03:27:00,60.8,49.1,29.77,NW,315,3.4,3.4,65,0.00,,,0.00,WUHU216HW,2013-07-07 09:27:00,
2013-07-07 03:28:00,60.8,49.1,29.77,NW,315,4.3,4.3,65,0.00,,,0.00,WUHU216HW,2013-07-07 09:28:00,
2013-07-07 03:32:00,60.7,48.9,29.77,NW,315,4.0,4.9,65,0.00,,,0.00,WUHU216HW,2013-07-07 09:32:00,
2013-07-07 03:33:00,60.7,48.9,29.77,NW,315,5.1,5.1,65,0.00,,,0.00,WUHU216HW,2013-07-07 09:33:00,
2013-07-07 03:37:00,60.3,48.5,29.77,NW,315,5.6,6.0,65,0.00,,,0.00,WUHU216HW,2013-07-07 09:37:00,
2013-07-07 03:38:00,60.1,48.3,29.77,NW,315,4.7,6.0,65,0.00,,,0.00,WUHU216HW,2013-07-07 09:38:00,
2013-07-07 03:42:00,59.9,48.2,29.77,NW,315,4.3,6.0,65,0.00,,,0.00,WUHU216HW,2013-07-07 09:42:00,
2013-07-07 03:43:00,59.9,48.2,29.77,NW,315,4.5,6.0,65,0.00,,,0.00,WUHU216HW,2013-07-07 09:43:00,
2013-07-07 03:44:00,59.8,48.4,29.77,NW,315,4.7,6.0,66,0.00,,,0.00,WUHU216HW,2013-07-07 09:44:00,
2013-07-07 03:47:00,59.8,48.4,29.77,NNW,338,4.5,5.6,66,0.00,,,0.00,WUHU216HW,2013-07-07 09:47:00,
2013-07-07 03:48:00,59.8,48.4,29.77,NNW,338,4.7,5.4,66,0.00,,,0.00,WUHU216HW,2013-07-07 09:48:00,
2013-07-07 03:49:00,59.8,48.4,29.77,NNW,338,4.7,5.4,66,0.00,,,0.00,WUHU216HW,2013-07-07 09:49:00,
2013-07-07 03:52:00,59.8,48.0,29.77,NNW,338,5.4,5.4,65,0.00,,,0.00,WUHU216HW,2013-07-07 09:52:00,
2013-07-07 03:53:00,59.6,47.8,29.77,NW,315,5.8,5.8,65,0.00,,,0.00,WUHU216HW,2013-07-07 09:53:00,
2013-07-07 03:54:00,59.6,47.3,29.77,NW,315,4.9,5.8,64,0.00,,,0.00,WUHU216HW,2013-07-07 09:54:00,
2013-07-07 03:57:00,59.6,47.3,29.77,NNW,338,6.5,6.5,64,0.00,,,0.00,WUHU216HW,2013-07-07 09:57:00,
2013-07-07 03:58:00,59.6,47.3,29.77,NNW,338,4.9,6.5,64,0.00,,,0.00,WUHU216HW,2013-07-07 09:58:00,
2013-07-07 03:59:00,59.6,47.3,29.77,NNW,338,4.7,6.5,64,0.00,,,0.00,WUHU216HW,2013-07-07 09:59:00,
2013-07-07 04:03:00,59.8,47.2,29.77,NNW,338,5.8,6.5,63,0.00,,,0.00,WUHU216HW,2013-07-07 10:03:00,
2013-07-07 04:04:00,59.8,47.2,29.77,NNW,338,5.4,6.5,63,0.00,,,0.00,WUHU216HW,2013-07-07 10:04:00,
2013-07-07 04:08:00,59.6,47.0,29.77,NW,315,5.6,5.8,63,0.00,,,0.00,WUHU216HW,2013-07-07 10:08:00,
2013-07-07 04:09:00,59.6,47.0,29.77,NW,315,4.0,5.8,63,0.00,,,0.00,WUHU216HW,2013-07-07 10:09:00,
2013-07-07 04:13:00,59.4,46.8,29.77,NW,315,5.6,6.9,63,0.00,,,0.00,WUHU216HW,2013-07-07 10:13:00,
2013-07-07 04:14:00,59.4,46.8,29.77,NW,315,4.9,6.9,63,0.00,,,0.00,WUHU216HW,2013-07-07 10:14:00,
2013-07-07 04:15:00,59.4,47.2,29.77,NW,315,4.7,6.9,64,0.00,,,0.00,WUHU216HW,2013-07-07 10:15:00,
2013-07-07 04:19:00,59.2,47.0,29.77,NNW,338,6.0,7.4,64,0.00,,,0.00,WUHU216HW,2013-07-07 10:19:00,
2013-07-07 04:20:00,59.2,46.6,29.77,NW,315,6.3,7.4,63,0.00,,,0.00,WUHU216HW,2013-07-07 10:20:00,
2013-07-07 04:24:00,59.2,47.0,29.77,NW,315,3.8,7.4,64,0.00,,,0.00,WUHU216HW,2013-07-07 10:24:00,
2013-07-07 04:25:00,59.2,47.0,29.77,NW,315,3.4,7.4,64,0.00,,,0.00,WUHU216HW,2013-07-07 10:25:00,
2013-07-07 04:29:00,59.0,46.8,29.77,NW,315,3.8,6.9,64,0.00,,,0.00,WUHU216HW,2013-07-07 10:29:00,
2013-07-07 04:30:00,59.0,46.8,29.77,NW,315,4.0,6.9,64,0.00,,,0.00,WUHU216HW,2013-07-07 10:30:00,
2013-07-07 04:31:00,58.9,46.7,29.77,West,270,4.5,6.9,64,0.00,,,0.00,WUHU216HW,2013-07-07 10:31:00,
2013-07-07 04:34:00,58.7,47.4,29.77,WNW,293,6.9,6.9,66,0.00,,,0.00,WUHU216HW,2013-07-07 10:34:00,
2013-07-07 04:35:00,58.7,47.7,29.77,WNW,293,4.7,6.9,67,0.00,,,0.00,WUHU216HW,2013-07-07 10:35:00,
2013-07-07 04:36:00,58.7,48.2,29.77,WNW,293,4.0,6.9,68,0.00,,,0.00,WUHU216HW,2013-07-07 10:36:00,
2013-07-07 04:40:00,58.7,48.2,29.77,NW,315,4.7,6.9,68,0.00,,,0.00,WUHU216HW,2013-07-07 10:40:00,
2013-07-07 04:41:00,58.7,48.2,29.77,NNW,338,3.4,6.9,68,0.00,,,0.00,WUHU216HW,2013-07-07 10:41:00,
2013-07-07 04:45:00,58.7,47.7,29.77,NNW,338,3.4,6.3,67,0.00,,,0.00,WUHU216HW,2013-07-07 10:45:00,
2013-07-07 04:46:00,58.7,47.7,29.77,NNW,338,4.0,6.3,67,0.00,,,0.00,WUHU216HW,2013-07-07 10:46:00,
2013-07-07 04:47:00,58.5,47.5,29.77,NW,315,5.6,5.6,67,0.00,,,0.00,WUHU216HW,2013-07-07 10:47:00,
2013-07-07 04:50:00,58.3,47.3,29.77,NNW,338,7.6,8.5,67,0.00,,,0.00,WUHU216HW,2013-07-07 10:50:00,
2013-07-07 04:51:00,58.3,47.3,29.77,NW,315,8.5,9.8,67,0.00,,,0.00,WUHU216HW,2013-07-07 10:51:00,
2013-07-07 04:52:00,58.3,47.3,29.77,NNW,338,11.4,11.4,67,0.00,,,0.00,WUHU216HW,2013-07-07 10:52:00,
2013-07-07 04:55:00,58.7,47.4,29.77,NW,315,8.7,11.4,66,0.00,,,0.00,WUHU216HW,2013-07-07 10:55:00,
2013-07-07 04:56:00,58.7,47.4,29.77,NW,315,8.9,11.4,66,0.00,,,0.00,WUHU216HW,2013-07-07 10:56:00,
2013-07-07 04:57:00,58.7,47.4,29.77,NW,315,7.8,11.4,66,0.00,,,0.00,WUHU216HW,2013-07-07 10:57:00,
2013-07-07 05:00:00,58.7,47.4,29.77,NW,315,6.7,11.4,66,0.00,,,0.00,WUHU216HW,2013-07-07 11:00:00,
2013-07-07 05:01:00,58.7,47.4,29.77,NNW,338,7.2,11.4,66,0.00,,,0.00,WUHU216HW,2013-07-07 11:01:00,
2013-07-07 05:02:00,58.7,47.4,29.77,NW,315,6.0,11.4,66,0.00,,,0.00,WUHU216HW,2013-07-07 11:02:00,
2013-07-07 05:05:00,58.5,47.5,29.77,NW,315,8.5,11.0,67,0.00,,,0.00,WUHU216HW,2013-07-07 11:05:00,
2013-07-07 05:06:00,58.5,47.5,29.77,NNW,338,9.8,11.0,67,0.00,,,0.00,WUHU216HW,2013-07-07 11:06:00,
2013-07-07 05:07:00,58.3,47.3,29.77,NNW,338,7.2,11.0,67,0.00,,,0.00,WUHU216HW,2013-07-07 11:07:00,
2013-07-07 05:10:00,58.1,48.0,29.77,NNW,338,10.5,11.0,69,0.00,,,0.00,WUHU216HW,2013-07-07 11:10:00,
2013-07-07 05:11:00,58.0,47.9,29.77,NNW,338,10.3,11.2,69,0.00,,,0.00,WUHU216HW,2013-07-07 11:11:00,
2013-07-07 05:12:00,58.0,48.2,29.77,NW,315,10.5,13.4,70,0.00,,,0.00,WUHU216HW,2013-07-07 11:12:00,
2013-07-07 05:16:00,57.8,48.1,29.78,NW,315,13.2,16.1,70,0.00,,,0.00,WUHU216HW,2013-07-07 11:16:00,
2013-07-07 05:17:00,57.6,47.9,29.78,NW,315,11.4,16.1,70,0.00,,,0.00,WUHU216HW,2013-07-07 11:17:00,
2013-07-07 05:21:00,57.4,47.7,29.78,NNW,338,12.8,16.1,70,0.00,,,0.00,WUHU216HW,2013-07-07 11:21:00,
2013-07-07 05:22:00,57.4,47.7,29.78,NNW,338,11.0,16.1,70,0.00,,,0.00,WUHU216HW,2013-07-07 11:22:00,
2013-07-07 05:23:00,57.4,47.7,29.78,NW,315,9.6,16.1,70,0.00,,,0.00,WUHU216HW,2013-07-07 11:23:00,
2013-07-07 05:26:00,57.2,47.5,29.78,NNW,338,11.6,13.2,70,0.00,,,0.00,WUHU216HW,2013-07-07 11:26:00,
2013-07-07 05:27:00,57.2,47.5,29.78,NW,315,8.1,13.0,70,0.00,,,0.00,WUHU216HW,2013-07-07 11:27:00,
2013-07-07 05:28:00,57.2,47.9,29.78,NNW,338,10.3,13.0,71,0.00,,,0.00,WUHU216HW,2013-07-07 11:28:00,
2013-07-07 05:31:00,56.9,47.5,29.78,North,0,6.9,12.8,71,0.00,,,0.00,WUHU216HW,2013-07-07 11:31:00,
2013-07-07 05:33:00,56.9,47.5,29.78,NNW,338,8.9,11.6,71,0.00,,,0.00,WUHU216HW,2013-07-07 11:33:00,
2013-07-07 05:37:00,56.7,47.7,29.78,NW,315,9.6,11.2,72,0.00,,,0.00,WUHU216HW,2013-07-07 11:37:00,
2013-07-07 05:38:00,56.7,47.7,29.78,NW,315,9.2,11.2,72,0.00,,,0.00,WUHU216HW,2013-07-07 11:38:00,
2013-07-07 05:39:00,56.7,47.7,29.78,NNW,338,8.7,11.2,72,0.00,,,0.00,WUHU216HW,2013-07-07 11:39:00,
2013-07-07 05:42:00,56.5,48.0,29.78,NNW,338,9.8,12.3,73,0.00,,,0.00,WUHU216HW,2013-07-07 11:42:00,
2013-07-07 05:43:00,56.5,48.0,29.78,NNW,338,10.5,12.3,73,0.00,,,0.00,WUHU216HW,2013-07-07 11:43:00,
2013-07-07 05:44:00,56.5,48.0,29.78,North,0,8.1,12.3,73,0.00,,,0.00,WUHU216HW,2013-07-07 11:44:00,
2013-07-07 05:47:00,56.5,48.0,29.78,NNW,338,7.6,12.3,73,0.00,,,0.00,WUHU216HW,2013-07-07 11:47:00,
2013-07-07 05:48:00,56.5,48.0,29.78,NW,315,8.7,12.3,73,0.00,,,0.00,WUHU216HW,2013-07-07 11:48:00,
2013-07-07 05:49:00,56.5,48.0,29.78,NW,315,10.3,12.3,73,0.00,,,0.00,WUHU216HW,2013-07-07 11:49:00,
2013-07-07 05:52:00,56.3,48.2,29.79,NNW,338,13.0,13.0,74,0.00,,,0.00,WUHU216HW,2013-07-07 11:52:00,
2013-07-07 05:53:00,56.5,48.2,29.78,NW,315,12.1,13.0,74,0.00,,,0.00,WUHU216HW,2013-07-07 11:53:00,
2013-07-07 05:54:00,56.5,48.2,29.78,NW,315,11.2,13.0,74,0.00,,,0.00,WUHU216HW,2013-07-07 11:54:00,
2013-07-07 05:58:00,56.5,48.2,29.79,NW,315,7.6,13.0,74,0.00,,,0.00,WUHU216HW,2013-07-07 11:58:00,
2013-07-07 05:59:00,56.5,48.2,29.79,NNW,338,12.8,13.0,74,0.00,,,0.00,WUHU216HW,2013-07-07 11:59:00,
2013-07-07 06:03:00,56.3,48.2,29.79,NW,315,8.9,13.0,74,0.00,,,0.00,WUHU216HW,2013-07-07 12:03:00,
2013-07-07 06:04:00,56.3,48.2,29.79,NNW,338,10.5,12.8,74,0.00,,,0.00,WUHU216HW,2013-07-07 12:04:00,
2013-07-07 06:05:00,56.3,48.5,29.79,NW,315,9.8,12.8,75,0.00,,,0.00,WUHU216HW,2013-07-07 12:05:00,
2013-07-07 06:07:00,56.3,48.2,29.79,NNW,338,10.5,12.8,74,0.00,,,0.00,WUHU216HW,2013-07-07 12:07:00,
2013-07-07 06:08:00,56.2,48.0,29.79,NW,315,11.0,12.8,74,0.00,,,0.00,WUHU216HW,2013-07-07 12:08:00,
2013-07-07 06:09:00,56.2,48.0,29.79,NW,315,10.5,12.8,74,0.00,,,0.00,WUHU216HW,2013-07-07 12:09:00,
2013-07-07 06:10:00,56.2,48.3,29.79,NW,315,11.0,11.2,75,0.00,,,0.00,WUHU216HW,2013-07-07 12:10:00,
2013-07-07 06:12:00,56.2,48.3,29.79,NW,315,12.1,14.3,75,0.00,,,0.00,WUHU216HW,2013-07-07 12:12:00,
2013-07-07 06:13:00,56.2,48.3,29.79,NW,315,10.5,14.3,75,0.00,,,0.00,WUHU216HW,2013-07-07 12:13:00,
2013-07-07 06:14:00,56.2,48.3,29.79,NW,315,11.4,14.3,75,0.00,,,0.00,WUHU216HW,2013-07-07 12:14:00,
2013-07-07 06:15:00,56.2,48.3,29.79,WNW,293,11.9,14.3,75,0.00,,,0.00,WUHU216HW,2013-07-07 12:15:00,
2013-07-07 06:18:00,56.0,48.5,29.79,NNW,338,9.8,14.3,76,0.00,,,0.00,WUHU216HW,2013-07-07 12:18:00,
2013-07-07 06:19:00,56.0,48.5,29.79,NNW,338,11.9,14.3,76,0.00,,,0.00,WUHU216HW,2013-07-07 12:19:00,
2013-07-07 06:20:00,56.0,48.5,29.79,NW,315,11.2,14.3,76,0.00,,,0.00,WUHU216HW,2013-07-07 12:20:00,
2013-07-07 06:23:00,56.0,48.5,29.79,NNW,338,11.4,14.3,76,0.00,,,0.00,WUHU216HW,2013-07-07 12:23:00,
2013-07-07 06:24:00,55.8,48.3,29.79,NNW,338,10.5,14.3,76,0.00,,,0.00,WUHU216HW,2013-07-07 12:24:00,
2013-07-07 06:25:00,55.8,48.3,29.79,NW,315,13.9,14.3,76,0.00,,,0.00,WUHU216HW,2013-07-07 12:25:00,
2013-07-07 06:28:00,55.8,48.3,29.79,NW,315,11.9,14.3,76,0.00,,,0.00,WUHU216HW,2013-07-07 12:28:00,
2013-07-07 06:29:00,55.8,48.3,29.79,NNW,338,8.7,14.1,76,0.00,,,0.00,WUHU216HW,2013-07-07 12:29:00,
2013-07-07 06:30:00,55.8,48.3,29.79,NNW,338,12.1,14.1,76,0.00,,,0.00,WUHU216HW,2013-07-07 12:30:00,
2013-07-07 06:34:00,55.8,48.3,29.79,NNW,338,11.9,13.9,76,0.00,,,0.00,WUHU216HW,2013-07-07 12:34:00,
2013-07-07 06:35:00,55.8,48.3,29.79,NW,315,10.7,13.9,76,0.00,,,0.00,WUHU216HW,2013-07-07 12:35:00,
2013-07-07 06:39:00,55.8,48.3,29.79,NNW,338,9.8,13.2,76,0.00,,,0.00,WUHU216HW,2013-07-07 12:39:00,
2013-07-07 06:40:00,56.0,48.5,29.79,NNW,338,12.8,13.2,76,0.00,,,0.00,WUHU216HW,2013-07-07 12:40:00,
2013-07-07 06:44:00,56.0,48.5,29.79,NW,315,10.7,17.2,76,0.00,,,0.00,WUHU216HW,2013-07-07 12:44:00,
2013-07-07 06:45:00,56.0,48.5,29.79,NNW,338,9.4,17.2,76,0.00,,,0.00,WUHU216HW,2013-07-07 12:45:00,
2013-07-07 06:49:00,56.0,48.8,29.80,NW,315,11.6,17.2,77,0.00,,,0.00,WUHU216HW,2013-07-07 12:49:00,
2013-07-07 06:50:00,56.0,48.8,29.80,NW,315,9.8,17.2,77,0.00,,,0.00,WUHU216HW,2013-07-07 12:50:00,
2013-07-07 06:51:00,56.0,48.8,29.80,NNW,338,12.8,17.2,77,0.00,,,0.00,WUHU216HW,2013-07-07 12:51:00,
2013-07-07 06:54:00,56.0,48.8,29.80,NNW,338,11.4,12.8,77,0.00,,,0.00,WUHU216HW,2013-07-07 12:54:00,
2013-07-07 06:55:00,56.0,48.8,29.80,NW,315,10.7,12.8,77,0.00,,,0.00,WUHU216HW,2013-07-07 12:55:00,
2013-07-07 06:57:00,56.0,48.5,29.80,NW,315,9.6,12.8,76,0.00,,,0.00,WUHU216HW,2013-07-07 12:57:00,
2013-07-07 06:59:00,56.0,48.5,29.80,NNW,338,6.3,12.8,76,0.00,,,0.00,WUHU216HW,2013-07-07 12:59:00,
2013-07-07 07:00:00,56.0,48.5,29.80,NW,315,9.6,12.8,76,0.00,,,0.00,WUHU216HW,2013-07-07 13:00:00,
2013-07-07 07:02:00,56.0,48.8,29.80,NNW,338,8.5,12.5,77,0.00,,,0.00,WUHU216HW,2013-07-07 13:02:00,
2013-07-07 07:05:00,56.0,48.8,29.80,NW,315,12.3,13.9,77,0.00,,,0.00,WUHU216HW,2013-07-07 13:05:00,
2013-07-07 07:07:00,56.2,49.0,29.80,NW,315,9.2,13.9,77,0.00,,,0.00,WUHU216HW,2013-07-07 13:07:00,
2013-07-07 07:10:00,56.2,49.0,29.80,NNW,338,11.4,13.9,77,0.00,,,0.00,WUHU216HW,2013-07-07 13:10:00,
2013-07-07 07:11:00,56.2,49.0,29.80,NNW,338,10.3,13.9,77,0.00,,,0.00,WUHU216HW,2013-07-07 13:11:00,
2013-07-07 07:12:00,56.2,49.0,29.80,NNW,338,10.5,13.9,77,0.00,,,0.00,WUHU216HW,2013-07-07 13:12:00,
2013-07-07 07:15:00,56.5,49.0,29.80,NW,315,11.4,13.2,76,0.00,,,0.00,WUHU216HW,2013-07-07 13:15:00,
2013-07-07 07:16:00,56.3,48.8,29.80,NW,315,11.4,13.2,76,0.00,,,0.00,WUHU216HW,2013-07-07 13:16:00,
2013-07-07 07:18:00,56.5,49.0,29.80,NW,315,10.7,14.3,76,0.00,,,0.00,WUHU216HW,2013-07-07 13:18:00,
2013-07-07 07:20:00,56.5,49.0,29.80,NNW,338,10.3,14.3,76,0.00,,,0.00,WUHU216HW,2013-07-07 13:20:00,
2013-07-07 07:21:00,56.3,48.8,29.80,NNW,338,13.0,14.3,76,0.00,,,0.00,WUHU216HW,2013-07-07 13:21:00,
2013-07-07 07:23:00,56.3,49.1,29.80,NW,315,9.2,14.3,77,0.00,,,0.00,WUHU216HW,2013-07-07 13:23:00,
2013-07-07 07:25:00,56.5,49.0,29.81,NNW,338,12.1,14.3,76,0.00,,,0.00,WUHU216HW,2013-07-07 13:25:00,
2013-07-07 07:26:00,56.5,49.0,29.81,NNW,338,15.0,15.0,76,0.00,,,0.00,WUHU216HW,2013-07-07 13:26:00,
2013-07-07 07:28:00,56.5,49.0,29.81,NNW,338,13.9,15.0,76,0.00,,,0.00,WUHU216HW,2013-07-07 13:28:00,
2013-07-07 07:30:00,56.7,49.1,29.81,NW,315,9.2,15.0,76,0.00,,,0.00,WUHU216HW,2013-07-07 13:30:00,
2013-07-07 07:31:00,56.7,49.1,29.81,NW,315,9.8,15.0,76,0.00,,,0.00,WUHU216HW,2013-07-07 13:31:00,
2013-07-07 07:32:00,56.7,49.1,29.81,NW,315,11.0,15.0,76,0.00,,,0.00,WUHU216HW,2013-07-07 13:32:00,
2013-07-07 07:33:00,56.9,49.3,29.81,NNW,338,11.4,15.0,76,0.00,,,0.00,WUHU216HW,2013-07-07 13:33:00,
2013-07-07 07:35:00,57.2,49.7,29.81,NW,315,11.4,15.0,76,0.00,,,0.00,WUHU216HW,2013-07-07 13:35:00,
2013-07-07 07:36:00,57.1,49.5,29.81,NW,315,12.3,15.0,76,0.00,,,0.00,WUHU216HW,2013-07-07 13:36:00,
2013-07-07 07:37:00,57.2,49.3,29.81,NW,315,13.0,15.0,75,0.00,,,0.00,WUHU216HW,2013-07-07 13:37:00,
2013-07-07 07:38:00,57.2,49.7,29.80,NNW,338,8.3,14.1,76,0.00,,,0.00,WUHU216HW,2013-07-07 13:38:00,
2013-07-07 07:41:00,57.4,49.5,29.81,NNW,338,7.6,14.1,75,0.00,,,0.00,WUHU216HW,2013-07-07 13:41:00,
2013-07-07 07:43:00,57.6,49.7,29.81,NNW,338,11.9,15.2,75,0.00,,,0.00,WUHU216HW,2013-07-07 13:43:00,
2013-07-07 07:44:00,57.6,49.3,29.81,NNW,338,13.2,15.2,74,0.00,,,0.00,WUHU216HW,2013-07-07 13:44:00,
2013-07-07 07:46:00,57.6,49.7,29.81,North,0,12.3,15.2,75,0.00,,,0.00,WUHU216HW,2013-07-07 13:46:00,
2013-07-07 07:47:00,57.6,49.7,29.80,NW,315,11.4,15.2,75,0.00,,,0.00,WUHU216HW,2013-07-07 13:47:00,
2013-07-07 07:48:00,57.6,49.7,29.80,NNW,338,12.5,15.2,75,0.00,,,0.00,WUHU216HW,2013-07-07 13:48:00,
2013-07-07 07:49:00,57.6,49.7,29.80,NW,315,8.3,15.2,75,0.00,,,0.00,WUHU216HW,2013-07-07 13:49:00,
2013-07-07 07:51:00,57.6,49.7,29.81,NNW,338,9.2,15.2,75,0.00,,,0.00,WUHU216HW,2013-07-07 13:51:00,
2013-07-07 07:52:00,57.6,49.7,29.81,NNW,338,12.1,13.4,75,0.00,,,0.00,WUHU216HW,2013-07-07 13:52:00,
2013-07-07 07:53:00,57.6,50.0,29.80,NNW,338,10.5,13.4,76,0.00,,,0.00,WUHU216HW,2013-07-07 13:53:00,
2013-07-07 07:54:00,57.6,49.7,29.80,NNW,338,8.3,13.4,75,0.00,,,0.00,WUHU216HW,2013-07-07 13:54:00,
2013-07-07 07:56:00,57.8,49.9,29.80,NW,315,8.5,13.4,75,0.00,,,0.00,WUHU216HW,2013-07-07 13:56:00,
2013-07-07 07:58:00,58.0,50.0,29.81,North,0,9.6,13.4,75,0.00,,,0.00,WUHU216HW,2013-07-07 13:58:00,
2013-07-07 07:59:00,58.1,50.2,29.81,NNW,338,9.8,13.4,75,0.00,,,0.00,WUHU216HW,2013-07-07 13:59:00,
2013-07-07 08:01:00,58.1,49.9,29.81,NNW,338,11.4,13.4,74,0.00,,,0.00,WUHU216HW,2013-07-07 14:01:00,
2013-07-07 08:03:00,58.1,49.9,29.81,NW,315,11.9,13.4,74,0.00,,,0.00,WUHU216HW,2013-07-07 14:03:00,
2013-07-07 08:04:00,58.1,49.9,29.81,North,0,11.4,13.4,74,0.00,,,0.00,WUHU216HW,2013-07-07 14:04:00,
2013-07-07 08:06:00,58.3,50.0,29.81,North,0,8.3,13.4,74,0.00,,,0.00,WUHU216HW,2013-07-07 14:06:00,
2013-07-07 08:08:00,58.5,50.2,29.81,NNW,338,10.7,13.4,74,0.00,,,0.00,WUHU216HW,2013-07-07 14:08:00,
2013-07-07 08:09:00,58.7,50.0,29.81,NNW,338,10.3,13.4,73,0.00,,,0.00,WUHU216HW,2013-07-07 14:09:00,
2013-07-07 08:11:00,58.7,50.0,29.81,North,0,8.7,13.0,73,0.00,,,0.00,WUHU216HW,2013-07-07 14:11:00,
2013-07-07 08:13:00,58.9,50.6,29.81,North,0,7.6,13.0,74,0.00,,,0.00,WUHU216HW,2013-07-07 14:13:00,
2013-07-07 08:14:00,58.9,50.2,29.81,NNW,338,12.5,13.0,73,0.00,,,0.00,WUHU216HW,2013-07-07 14:14:00,
2013-07-07 08:17:00,58.9,50.2,29.81,NNW,338,8.9,13.0,73,0.00,,,0.00,WUHU216HW,2013-07-07 14:17:00,
2013-07-07 08:18:00,59.0,50.4,29.81,NNW,338,9.8,12.5,73,0.00,,,0.00,WUHU216HW,2013-07-07 14:18:00,
2013-07-07 08:19:00,59.0,50.4,29.81,NNW,338,9.2,12.5,73,0.00,,,0.00,WUHU216HW,2013-07-07 14:19:00,
2013-07-07 08:22:00,59.4,50.4,29.81,NNW,338,8.7,14.1,72,0.00,,,0.00,WUHU216HW,2013-07-07 14:22:00,
2013-07-07 08:23:00,59.4,50.4,29.81,NNW,338,12.1,14.1,72,0.00,,,0.00,WUHU216HW,2013-07-07 14:23:00,
2013-07-07 08:24:00,59.4,50.4,29.81,North,0,8.7,14.1,72,0.00,,,0.00,WUHU216HW,2013-07-07 14:24:00,
2013-07-07 08:25:00,59.8,50.4,29.81,North,0,10.7,14.1,71,0.00,,,0.00,WUHU216HW,2013-07-07 14:25:00,
2013-07-07 08:27:00,59.8,50.4,29.81,North,0,11.9,14.1,71,0.00,,,0.00,WUHU216HW,2013-07-07 14:27:00,
2013-07-07 08:29:00,59.9,50.2,29.81,NNW,338,9.8,14.1,70,0.00,,,0.00,WUHU216HW,2013-07-07 14:29:00,
2013-07-07 08:30:00,59.9,50.2,29.81,NNW,338,15.2,15.2,70,0.00,,,0.00,WUHU216HW,2013-07-07 14:30:00,
2013-07-07 08:32:00,59.9,50.2,29.81,NNW,338,12.8,15.2,70,0.00,,,0.00,WUHU216HW,2013-07-07 14:32:00,
2013-07-07 08:34:00,60.1,50.0,29.81,NNW,338,12.8,15.2,69,0.00,,,0.00,WUHU216HW,2013-07-07 14:34:00,
2013-07-07 08:36:00,60.3,50.1,29.81,NNW,338,10.3,15.2,69,0.00,,,0.00,WUHU216HW,2013-07-07 14:36:00,
2013-07-07 08:37:00,60.3,50.1,29.81,NNW,338,11.4,15.2,69,0.00,,,0.00,WUHU216HW,2013-07-07 14:37:00,
2013-07-07 08:39:00,60.3,50.1,29.81,North,0,8.9,15.2,69,0.00,,,0.00,WUHU216HW,2013-07-07 14:39:00,
2013-07-07 08:40:00,60.3,50.1,29.81,NNW,338,10.1,15.2,69,0.00,,,0.00,WUHU216HW,2013-07-07 14:40:00,
2013-07-07 08:41:00,60.3,50.1,29.81,NW,315,9.2,15.0,69,0.00,,,0.00,WUHU216HW,2013-07-07 14:41:00,
2013-07-07 08:42:00,60.3,50.6,29.81,NNW,338,11.4,15.0,70,0.00,,,0.00,WUHU216HW,2013-07-07 14:42:00,
2013-07-07 08:44:00,60.5,50.8,29.81,North,0,12.3,14.5,70,0.00,,,0.00,WUHU216HW,2013-07-07 14:44:00,
2013-07-07 08:45:00,60.5,50.8,29.81,North,0,12.3,14.5,70,0.00,,,0.00,WUHU216HW,2013-07-07 14:45:00,
2013-07-07 08:47:00,60.5,50.3,29.81,NNW,338,11.2,13.9,69,0.00,,,0.00,WUHU216HW,2013-07-07 14:47:00,
2013-07-07 08:48:00,60.7,50.5,29.81,NNW,338,10.5,13.9,69,0.00,,,0.00,WUHU216HW,2013-07-07 14:48:00,
2013-07-07 08:50:00,60.8,50.7,29.81,NW,315,10.3,13.6,69,0.00,,,0.00,WUHU216HW,2013-07-07 14:50:00,
2013-07-07 08:51:00,60.8,50.3,29.81,NNW,338,12.1,13.9,68,0.00,,,0.00,WUHU216HW,2013-07-07 14:51:00,
2013-07-07 08:52:00,60.8,49.9,29.82,North,0,11.9,13.9,67,0.00,,,0.00,WUHU216HW,2013-07-07 14:52:00,
2013-07-07 08:53:00,61.0,50.5,29.82,NNW,338,8.5,13.9,68,0.00,,,0.00,WUHU216HW,2013-07-07 14:53:00,
2013-07-07 08:55:00,61.0,50.0,29.82,NNW,338,9.8,13.9,67,0.00,,,0.00,WUHU216HW,2013-07-07 14:55:00,
2013-07-07 08:56:00,60.8,50.3,29.82,NNW,338,12.3,13.9,68,0.00,,,0.00,WUHU216HW,2013-07-07 14:56:00,
2013-07-07 08:57:00,60.8,50.3,29.82,NNW,338,12.1,13.9,68,0.00,,,0.00,WUHU216HW,2013-07-07 14:57:00,
2013-07-07 08:58:00,61.2,51.0,29.82,North,0,11.0,13.9,69,0.00,,,0.00,WUHU216HW,2013-07-07 14:58:00,
2013-07-07 09:00:00,61.2,51.0,29.82,North,0,8.3,13.9,69,0.00,,,0.00,WUHU216HW,2013-07-07 15:00:00,
2013-07-07 09:01:00,61.6,51.4,29.82,NNW,338,11.0,13.4,69,0.00,,,0.00,WUHU216HW,2013-07-07 15:01:00,
2013-07-07 09:02:00,61.4,50.8,29.82,NW,315,13.9,15.2,68,0.00,,,0.00,WUHU216HW,2013-07-07 15:02:00,
2013-07-07 09:03:00,61.4,51.2,29.82,NNW,338,11.4,15.2,69,0.00,,,0.00,WUHU216HW,2013-07-07 15:03:00,
2013-07-07 09:05:00,61.4,51.2,29.82,NNW,338,12.8,15.2,69,0.00,,,0.00,WUHU216HW,2013-07-07 15:05:00,
2013-07-07 09:06:00,61.6,51.4,29.82,NW,315,8.9,15.2,69,0.00,,,0.00,WUHU216HW,2013-07-07 15:06:00,
2013-07-07 09:07:00,61.6,51.4,29.82,NNW,338,10.3,15.2,69,0.00,,,0.00,WUHU216HW,2013-07-07 15:07:00,
2013-07-07 09:08:00,61.6,51.4,29.82,NNW,338,7.8,15.2,69,0.00,,,0.00,WUHU216HW,2013-07-07 15:08:00,
2013-07-07 09:10:00,61.7,51.1,29.82,NW,315,11.0,15.2,68,0.00,,,0.00,WUHU216HW,2013-07-07 15:10:00,
2013-07-07 09:12:00,61.9,50.9,29.82,North,0,9.2,15.2,67,0.00,,,0.00,WUHU216HW,2013-07-07 15:12:00,
2013-07-07 09:14:00,61.7,50.7,29.81,North,0,7.8,13.0,67,0.00,,,0.00,WUHU216HW,2013-07-07 15:14:00,
2013-07-07 09:15:00,61.7,50.7,29.81,NNW,338,9.8,13.0,67,0.00,,,0.00,WUHU216HW,2013-07-07 15:15:00,
2013-07-07 09:17:00,61.7,50.7,29.81,NNW,338,9.8,13.0,67,0.00,,,0.00,WUHU216HW,2013-07-07 15:17:00,
2013-07-07 09:18:00,61.7,50.7,29.81,NNW,338,9.8,13.0,67,0.00,,,0.00,WUHU216HW,2013-07-07 15:18:00,
2013-07-07 09:20:00,61.9,51.3,29.81,NNW,338,11.2,13.0,68,0.00,,,0.00,WUHU216HW,2013-07-07 15:20:00,
2013-07-07 09:23:00,62.3,51.6,29.81,NNW,338,8.3,11.4,68,0.00,,,0.00,WUHU216HW,2013-07-07 15:23:00,
2013-07-07 09:25:00,62.3,51.2,29.81,North,0,11.6,11.6,67,0.00,,,0.00,WUHU216HW,2013-07-07 15:25:00,
2013-07-07 09:28:00,62.3,51.2,29.81,NNW,338,7.6,11.6,67,0.00,,,0.00,WUHU216HW,2013-07-07 15:28:00,
2013-07-07 09:30:00,62.5,51.3,29.81,NNW,338,11.4,11.6,67,0.00,,,0.00,WUHU216HW,2013-07-07 15:30:00,
2013-07-07 09:31:00,62.6,51.1,29.81,NNW,338,6.3,12.8,66,0.00,,,0.00,WUHU216HW,2013-07-07 15:31:00,
2013-07-07 09:33:00,62.6,51.5,29.81,NNW,338,7.2,12.8,67,0.00,,,0.00,WUHU216HW,2013-07-07 15:33:00,
2013-07-07 09:35:00,63.0,51.0,29.81,NNW,338,10.1,12.8,65,0.00,,,0.00,WUHU216HW,2013-07-07 15:35:00,
2013-07-07 09:36:00,63.0,51.0,29.81,NNW,338,11.9,12.8,65,0.00,,,0.00,WUHU216HW,2013-07-07 15:36:00,
2013-07-07 09:38:00,63.2,51.2,29.81,North,0,7.4,12.8,65,0.00,,,0.00,WUHU216HW,2013-07-07 15:38:00,
2013-07-07 09:40:00,63.2,51.2,29.81,NNW,338,9.2,12.8,65,0.00,,,0.00,WUHU216HW,2013-07-07 15:40:00,
2013-07-07 09:41:00,63.4,51.4,29.81,NW,315,7.4,12.1,65,0.00,,,0.00,WUHU216HW,2013-07-07 15:41:00,
2013-07-07 09:43:00,63.4,51.4,29.81,North,0,7.8,12.1,65,0.00,,,0.00,WUHU216HW,2013-07-07 15:43:00,
2013-07-07 09:44:00,63.4,51.4,29.81,North,0,7.8,12.1,65,0.00,,,0.00,WUHU216HW,2013-07-07 15:44:00,
2013-07-07 09:46:00,63.4,51.4,29.81,NNW,338,9.8,11.9,65,0.00,,,0.00,WUHU216HW,2013-07-07 15:46:00,
2013-07-07 09:49:00,64.1,52.0,29.81,NNW,338,7.4,11.9,65,0.00,,,0.00,WUHU216HW,2013-07-07 15:49:00,
2013-07-07 09:51:00,64.6,51.7,29.81,NNW,338,6.7,10.5,63,0.00,,,0.00,WUHU216HW,2013-07-07 15:51:00,
2013-07-07 09:54:00,64.8,51.5,29.81,NNW,338,5.1,9.8,62,0.00,,,0.00,WUHU216HW,2013-07-07 15:54:00,
2013-07-07 09:56:00,64.8,51.5,29.81,NNW,338,7.6,9.8,62,0.00,,,0.00,WUHU216HW,2013-07-07 15:56:00,
2013-07-07 09:57:00,65.0,51.6,29.81,NW,315,7.4,9.4,62,0.00,,,0.00,WUHU216HW,2013-07-07 15:57:00,
2013-07-07 09:59:00,65.0,51.2,29.81,North,0,6.9,9.4,61,0.00,,,0.00,WUHU216HW,2013-07-07 15:59:00,
2013-07-07 10:01:00,64.8,51.8,29.81,North,0,5.4,8.7,63,0.00,,,0.00,WUHU216HW,2013-07-07 16:01:00,
2013-07-07 10:02:00,64.8,51.8,29.81,NNW,338,6.7,8.7,63,0.00,,,0.00,WUHU216HW,2013-07-07 16:02:00,
2013-07-07 10:04:00,65.2,51.8,29.81,NW,315,7.6,8.7,62,0.00,,,0.00,WUHU216HW,2013-07-07 16:04:00,
2013-07-07 10:05:00,65.2,51.8,29.81,NW,315,7.6,8.7,62,0.00,,,0.00,WUHU216HW,2013-07-07 16:05:00,
2013-07-07 10:06:00,65.5,52.1,29.80,NNW,338,6.7,8.5,62,0.00,,,0.00,WUHU216HW,2013-07-07 16:06:00,
2013-07-07 10:07:00,65.7,51.5,29.81,NNW,338,6.7,9.8,60,0.00,,,0.00,WUHU216HW,2013-07-07 16:07:00,
2013-07-07 10:09:00,65.7,51.9,29.81,WNW,293,5.1,9.8,61,0.00,,,0.00,WUHU216HW,2013-07-07 16:09:00,
2013-07-07 10:10:00,65.7,51.9,29.81,WNW,293,6.9,9.8,61,0.00,,,0.00,WUHU216HW,2013-07-07 16:10:00,
2013-07-07 10:11:00,65.9,52.1,29.81,NNW,338,5.1,9.8,61,0.00,,,0.00,WUHU216HW,2013-07-07 16:11:00,
2013-07-07 10:12:00,65.9,51.7,29.81,NW,315,7.4,9.8,60,0.00,,,0.00,WUHU216HW,2013-07-07 16:12:00,
2013-07-07 10:15:00,66.2,52.0,29.81,North,0,6.5,9.8,60,0.00,,,0.00,WUHU216HW,2013-07-07 16:15:00,
2013-07-07 10:16:00,66.1,51.4,29.80,NNW,338,4.3,9.8,59,0.00,,,0.00,WUHU216HW,2013-07-07 16:16:00,
2013-07-07 10:17:00,66.1,51.4,29.80,NNW,338,4.3,9.8,59,0.00,,,0.00,WUHU216HW,2013-07-07 16:17:00,
2013-07-07 10:18:00,66.1,51.8,29.80,NNW,338,3.8,9.6,60,0.00,,,0.00,WUHU216HW,2013-07-07 16:18:00,
2013-07-07 10:20:00,66.2,52.0,29.80,North,0,3.8,9.6,60,0.00,,,0.00,WUHU216HW,2013-07-07 16:20:00,
2013-07-07 10:21:00,66.2,52.0,29.80,North,0,4.9,7.4,60,0.00,,,0.00,WUHU216HW,2013-07-07 16:21:00,
2013-07-07 10:22:00,66.2,52.0,29.80,North,0,4.9,7.4,60,0.00,,,0.00,WUHU216HW,2013-07-07 16:22:00,
2013-07-07 10:23:00,66.2,52.0,29.80,NNE,23,2.7,6.5,60,0.00,,,0.00,WUHU216HW,2013-07-07 16:23:00,
2013-07-07 10:25:00,66.4,51.7,29.80,North,0,4.5,6.5,59,0.00,,,0.00,WUHU216HW,2013-07-07 16:25:00,
2013-07-07 10:27:00,66.4,51.7,29.80,NNW,338,3.8,6.0,59,0.00,,,0.00,WUHU216HW,2013-07-07 16:27:00,
2013-07-07 10:28:00,66.4,51.7,29.80,North,0,3.6,6.0,59,0.00,,,0.00,WUHU216HW,2013-07-07 16:28:00,
2013-07-07 10:30:00,66.2,52.0,29.80,NNW,338,3.1,6.0,60,0.00,,,0.00,WUHU216HW,2013-07-07 16:30:00,
2013-07-07 10:32:00,66.6,51.8,29.80,NNE,23,1.6,6.0,59,0.00,,,0.00,WUHU216HW,2013-07-07 16:32:00,
2013-07-07 10:33:00,66.6,51.8,29.80,NNW,338,2.5,6.0,59,0.00,,,0.00,WUHU216HW,2013-07-07 16:33:00,
2013-07-07 10:35:00,67.3,52.5,29.80,WNW,293,3.8,5.1,59,0.00,,,0.00,WUHU216HW,2013-07-07 16:35:00,
2013-07-07 10:37:00,67.9,52.5,29.80,WSW,248,3.4,5.1,58,0.00,,,0.00,WUHU216HW,2013-07-07 16:37:00,
2013-07-07 10:38:00,68.0,52.7,29.80,NW,315,1.8,4.5,58,0.00,,,0.00,WUHU216HW,2013-07-07 16:38:00,
2013-07-07 10:40:00,68.2,52.4,29.80,NW,315,4.3,4.3,57,0.00,,,0.00,WUHU216HW,2013-07-07 16:40:00,
2013-07-07 10:42:00,68.6,52.2,29.80,North,0,7.2,7.2,56,0.00,,,0.00,WUHU216HW,2013-07-07 16:42:00,
2013-07-07 10:43:00,68.6,52.2,29.80,North,0,5.4,7.6,56,0.00,,,0.00,WUHU216HW,2013-07-07 16:43:00,
2013-07-07 10:45:00,68.4,52.0,29.80,NE,45,3.4,7.6,56,0.00,,,0.00,WUHU216HW,2013-07-07 16:45:00,
2013-07-07 10:46:00,68.4,52.0,29.80,ENE,68,1.6,7.6,56,0.00,,,0.00,WUHU216HW,2013-07-07 16:46:00,
2013-07-07 10:48:00,68.4,51.6,29.80,NNE,23,2.5,7.6,55,0.00,,,0.00,WUHU216HW,2013-07-07 16:48:00,
2013-07-07 10:50:00,68.4,51.6,29.80,ENE,68,3.4,7.6,55,0.00,,,0.00,WUHU216HW,2013-07-07 16:50:00,
2013-07-07 10:51:00,68.4,51.6,29.80,ENE,68,3.4,7.6,55,0.00,,,0.00,WUHU216HW,2013-07-07 16:51:00,
2013-07-07 10:53:00,69.1,52.2,29.80,ENE,68,4.0,6.3,55,0.00,,,0.00,WUHU216HW,2013-07-07 16:53:00,
2013-07-07 10:56:00,69.7,52.7,29.80,North,0,2.2,5.4,55,0.00,,,0.00,WUHU216HW,2013-07-07 16:56:00,
2013-07-07 10:58:00,70.0,52.1,29.79,NE,45,2.0,5.4,53,0.00,,,0.00,WUHU216HW,2013-07-07 16:58:00,
2013-07-07 10:59:00,70.0,52.1,29.80,East,90,1.3,5.4,53,0.00,,,0.00,WUHU216HW,2013-07-07 16:59:00,
2013-07-07 11:01:00,69.8,52.4,29.80,NW,315,2.0,5.4,54,0.00,,,0.00,WUHU216HW,2013-07-07 17:01:00,
2013-07-07 11:03:00,70.2,52.7,29.79,NE,45,5.4,5.4,54,0.00,,,0.00,WUHU216HW,2013-07-07 17:03:00,
2013-07-07 11:04:00,70.2,52.7,29.79,NE,45,5.4,5.4,54,0.00,,,0.00,WUHU216HW,2013-07-07 17:04:00,
2013-07-07 11:06:00,70.2,52.2,29.79,ENE,68,2.2,5.4,53,0.00,,,0.00,WUHU216HW,2013-07-07 17:06:00,
2013-07-07 11:07:00,70.2,52.2,29.79,North,0,1.8,5.4,53,0.00,,,0.00,WUHU216HW,2013-07-07 17:07:00,
2013-07-07 11:09:00,70.2,52.2,29.79,SSE,158,1.8,5.4,53,0.00,,,0.00,WUHU216HW,2013-07-07 17:09:00,
2013-07-07 11:10:00,70.2,52.7,29.79,ENE,68,2.5,5.4,54,0.00,,,0.00,WUHU216HW,2013-07-07 17:10:00,
2013-07-07 11:11:00,70.4,52.9,29.79,SE,135,0.4,5.4,54,0.00,,,0.00,WUHU216HW,2013-07-07 17:11:00,
2013-07-07 11:12:00,70.6,53.1,29.79,SE,135,4.0,5.4,54,0.00,,,0.00,WUHU216HW,2013-07-07 17:12:00,
2013-07-07 11:14:00,70.9,52.9,29.79,ESE,113,5.1,6.3,53,0.00,,,0.00,WUHU216HW,2013-07-07 17:14:00,
2013-07-07 11:15:00,71.5,53.9,29.79,South,180,1.6,6.3,54,0.00,,,0.00,WUHU216HW,2013-07-07 17:15:00,
2013-07-07 11:16:00,71.8,54.2,29.79,SE,135,2.5,6.3,54,0.00,,,0.00,WUHU216HW,2013-07-07 17:16:00,
2013-07-07 11:17:00,72.0,53.8,29.79,WSW,248,2.2,6.3,53,0.00,,,0.00,WUHU216HW,2013-07-07 17:17:00,
2013-07-07 11:19:00,72.4,54.2,29.79,SE,135,2.5,6.3,53,0.00,,,0.00,WUHU216HW,2013-07-07 17:19:00,
2013-07-07 11:20:00,72.9,53.6,29.79,East,90,1.1,6.3,51,0.00,,,0.00,WUHU216HW,2013-07-07 17:20:00,
2013-07-07 11:22:00,73.3,54.0,29.79,SE,135,3.4,6.3,51,0.00,,,0.00,WUHU216HW,2013-07-07 17:22:00,
2013-07-07 11:24:00,73.8,53.4,29.79,North,0,5.8,5.8,49,0.00,,,0.00,WUHU216HW,2013-07-07 17:24:00,
2013-07-07 11:26:00,73.8,52.8,29.79,NE,45,5.1,6.0,48,0.00,,,0.00,WUHU216HW,2013-07-07 17:26:00,
2013-07-07 11:27:00,73.4,53.0,29.79,NNW,338,2.9,6.0,49,0.00,,,0.00,WUHU216HW,2013-07-07 17:27:00,
2013-07-07 11:28:00,73.3,52.9,29.79,NNW,338,2.9,6.0,49,0.00,,,0.00,WUHU216HW,2013-07-07 17:28:00,
2013-07-07 11:29:00,73.1,52.8,29.79,ENE,68,6.3,6.3,49,0.00,,,0.00,WUHU216HW,2013-07-07 17:29:00,
2013-07-07 11:31:00,73.1,53.3,29.79,NE,45,5.8,6.3,50,0.00,,,0.00,WUHU216HW,2013-07-07 17:31:00,
2013-07-07 11:33:00,73.1,52.8,29.79,East,90,4.5,8.1,49,0.00,,,0.00,WUHU216HW,2013-07-07 17:33:00,
2013-07-07 11:34:00,73.1,52.8,29.79,ESE,113,3.4,8.1,49,0.00,,,0.00,WUHU216HW,2013-07-07 17:34:00,
2013-07-07 11:35:00,72.9,52.6,29.79,East,90,8.3,8.3,49,0.00,,,0.00,WUHU216HW,2013-07-07 17:35:00,
2013-07-07 11:36:00,72.9,53.2,29.79,East,90,6.9,8.3,50,0.00,,,0.00,WUHU216HW,2013-07-07 17:36:00,
2013-07-07 11:38:00,73.3,52.3,29.79,NE,45,6.0,8.3,48,0.00,,,0.00,WUHU216HW,2013-07-07 17:38:00,
2013-07-07 11:40:00,73.1,52.1,29.79,NNE,23,4.0,8.3,48,0.00,,,0.00,WUHU216HW,2013-07-07 17:40:00,
2013-07-07 11:41:00,73.1,52.8,29.79,NE,45,1.6,8.3,49,0.00,,,0.00,WUHU216HW,2013-07-07 17:41:00,
2013-07-07 11:43:00,73.1,53.3,29.78,SSE,158,0.7,8.3,50,0.00,,,0.00,WUHU216HW,2013-07-07 17:43:00,
2013-07-07 11:44:00,73.4,54.2,29.78,SE,135,1.1,8.3,51,0.00,,,0.00,WUHU216HW,2013-07-07 17:44:00,
2013-07-07 11:45:00,73.4,54.2,29.78,SE,135,1.3,8.3,51,0.00,,,0.00,WUHU216HW,2013-07-07 17:45:00,
2013-07-07 11:46:00,74.2,53.7,29.78,ESE,113,3.8,7.2,49,0.00,,,0.00,WUHU216HW,2013-07-07 17:46:00,
2013-07-07 11:48:00,74.5,53.6,29.78,East,90,5.4,7.4,48,0.00,,,0.00,WUHU216HW,2013-07-07 17:48:00,
2013-07-07 11:49:00,74.5,52.9,29.78,ENE,68,4.9,7.4,47,0.00,,,0.00,WUHU216HW,2013-07-07 17:49:00,
2013-07-07 11:50:00,74.7,53.1,29.78,ESE,113,5.1,7.4,47,0.00,,,0.00,WUHU216HW,2013-07-07 17:50:00,
2013-07-07 11:51:00,74.9,53.8,29.78,East,90,3.4,7.4,48,0.00,,,0.00,WUHU216HW,2013-07-07 17:51:00,
2013-07-07 11:53:00,75.4,55.0,29.78,SE,135,2.7,7.4,49,0.00,,,0.00,WUHU216HW,2013-07-07 17:53:00,
2013-07-07 11:55:00,75.6,55.2,29.78,ESE,113,1.6,7.4,49,0.00,,,0.00,WUHU216HW,2013-07-07 17:55:00,
2013-07-07 11:57:00,76.3,54.5,29.78,ESE,113,3.4,7.4,47,0.00,,,0.00,WUHU216HW,2013-07-07 17:57:00,
2013-07-07 11:59:00,76.7,54.3,29.78,ENE,68,3.6,6.3,46,0.00,,,0.00,WUHU216HW,2013-07-07 17:59:00,
2013-07-07 12:00:00,77.0,54.6,29.78,ESE,113,2.5,6.0,46,0.00,,,0.00,WUHU216HW,2013-07-07 18:00:00,
2013-07-07 12:02:00,77.4,54.9,29.78,East,90,8.1,8.9,46,0.00,,,0.00,WUHU216HW,2013-07-07 18:02:00,
2013-07-07 12:04:00,77.8,53.5,29.78,NE,45,4.7,9.2,43,0.00,,,0.00,WUHU216HW,2013-07-07 18:04:00,
2013-07-07 12:05:00,77.4,53.1,29.78,NE,45,1.8,9.2,43,0.00,,,0.00,WUHU216HW,2013-07-07 18:05:00,
2013-07-07 12:06:00,77.4,53.1,29.78,ENE,68,7.6,9.2,43,0.00,,,0.00,WUHU216HW,2013-07-07 18:06:00,
2013-07-07 12:07:00,76.9,53.2,29.78,NE,45,6.9,9.2,44,0.00,,,0.00,WUHU216HW,2013-07-07 18:07:00,
2013-07-07 12:09:00,76.1,52.6,29.78,NE,45,5.4,10.1,44,0.00,,,0.00,WUHU216HW,2013-07-07 18:09:00,
2013-07-07 12:10:00,76.0,53.6,29.78,East,90,5.1,10.1,46,0.00,,,0.00,WUHU216HW,2013-07-07 18:10:00,
2013-07-07 12:11:00,76.0,53.6,29.78,ENE,68,4.7,10.1,46,0.00,,,0.00,WUHU216HW,2013-07-07 18:11:00,
2013-07-07 12:13:00,76.0,53.6,29.78,ENE,68,8.5,10.1,46,0.00,,,0.00,WUHU216HW,2013-07-07 18:13:00,
2013-07-07 12:14:00,76.0,53.0,29.78,ENE,68,4.0,10.1,45,0.00,,,0.00,WUHU216HW,2013-07-07 18:14:00,
2013-07-07 12:15:00,75.8,52.8,29.78,NE,45,5.4,10.1,45,0.00,,,0.00,WUHU216HW,2013-07-07 18:15:00,
2013-07-07 12:16:00,75.8,52.8,29.78,NE,45,4.3,10.1,45,0.00,,,0.00,WUHU216HW,2013-07-07 18:16:00,
2013-07-07 12:18:00,75.4,52.6,29.78,ENE,68,0.4,10.1,45,0.00,,,0.00,WUHU216HW,2013-07-07 18:18:00,
2013-07-07 12:19:00,75.2,53.0,29.78,NE,45,6.9,8.5,46,0.00,,,0.00,WUHU216HW,2013-07-07 18:19:00,
2013-07-07 12:20:00,75.2,53.0,29.78,NE,45,7.4,8.5,46,0.00,,,0.00,WUHU216HW,2013-07-07 18:20:00,
2013-07-07 12:21:00,75.2,53.0,29.78,NE,45,4.7,8.5,46,0.00,,,0.00,WUHU216HW,2013-07-07 18:21:00,
2013-07-07 12:23:00,75.4,53.2,29.78,ENE,68,4.9,8.5,46,0.00,,,0.00,WUHU216HW,2013-07-07 18:23:00,
2013-07-07 12:24:00,75.6,53.3,29.78,ENE,68,1.8,7.8,46,0.00,,,0.00,WUHU216HW,2013-07-07 18:24:00,
2013-07-07 12:26:00,76.0,53.6,29.78,East,90,4.0,7.8,46,0.00,,,0.00,WUHU216HW,2013-07-07 18:26:00,
2013-07-07 12:28:00,76.7,53.6,29.77,ENE,68,4.0,7.8,45,0.00,,,0.00,WUHU216HW,2013-07-07 18:28:00,
2013-07-07 12:30:00,76.7,53.1,29.77,NE,45,3.1,7.8,44,0.00,,,0.00,WUHU216HW,2013-07-07 18:30:00,
2013-07-07 12:31:00,76.7,53.1,29.77,NE,45,5.4,7.6,44,0.00,,,0.00,WUHU216HW,2013-07-07 18:31:00,
2013-07-07 12:33:00,77.2,54.2,29.77,South,180,7.2,7.6,45,0.00,,,0.00,WUHU216HW,2013-07-07 18:33:00,
2013-07-07 12:35:00,77.6,54.5,29.77,SSE,158,6.3,7.6,45,0.00,,,0.00,WUHU216HW,2013-07-07 18:35:00,
2013-07-07 12:36:00,78.1,55.0,29.77,ESE,113,2.9,7.6,45,0.00,,,0.00,WUHU216HW,2013-07-07 18:36:00,
2013-07-07 12:37:00,78.3,54.6,29.77,ESE,113,1.3,7.6,44,0.00,,,0.00,WUHU216HW,2013-07-07 18:37:00,
2013-07-07 12:38:00,79.2,54.1,29.78,East,90,4.3,7.2,42,0.00,,,0.00,WUHU216HW,2013-07-07 18:38:00,
2013-07-07 12:40:00,79.6,54.5,29.77,NE,45,2.5,7.2,42,0.00,,,0.00,WUHU216HW,2013-07-07 18:40:00,
2013-07-07 12:41:00,79.7,53.4,29.77,NE,45,3.8,7.2,40,0.00,,,0.00,WUHU216HW,2013-07-07 18:41:00,
2013-07-07 12:42:00,79.7,54.0,29.77,NE,45,6.0,7.2,41,0.00,,,0.00,WUHU216HW,2013-07-07 18:42:00,
2013-07-07 12:43:00,79.6,53.2,29.77,NNE,23,7.8,7.8,40,0.00,,,0.00,WUHU216HW,2013-07-07 18:43:00,
2013-07-07 12:45:00,79.6,53.2,29.77,SE,135,6.3,8.5,40,0.00,,,0.00,WUHU216HW,2013-07-07 18:45:00,
2013-07-07 12:46:00,79.6,53.8,29.77,SE,135,5.1,8.5,41,0.00,,,0.00,WUHU216HW,2013-07-07 18:46:00,
2013-07-07 12:47:00,79.7,54.6,29.77,SE,135,3.4,8.5,42,0.00,,,0.00,WUHU216HW,2013-07-07 18:47:00,
2013-07-07 12:49:00,80.1,52.9,29.77,ENE,68,6.5,8.5,39,0.00,,,0.00,WUHU216HW,2013-07-07 18:49:00,
2013-07-07 12:50:00,80.1,52.1,29.77,North,0,4.0,8.5,38,0.00,,,0.00,WUHU216HW,2013-07-07 18:50:00,
2013-07-07 12:51:00,79.7,52.6,29.77,ENE,68,13.0,13.0,39,0.00,,,0.00,WUHU216HW,2013-07-07 18:51:00,
2013-07-07 12:52:00,79.6,52.5,29.77,NE,45,8.1,13.0,39,0.00,,,0.00,WUHU216HW,2013-07-07 18:52:00,
2013-07-07 12:54:00,79.4,53.0,29.77,SE,135,4.7,13.0,40,0.00,,,0.00,WUHU216HW,2013-07-07 18:54:00,
2013-07-07 12:55:00,79.6,53.2,29.77,East,90,8.7,13.0,40,0.00,,,0.00,WUHU216HW,2013-07-07 18:55:00,
2013-07-07 12:56:00,79.7,54.0,29.77,ESE,113,5.6,13.0,41,0.00,,,0.00,WUHU216HW,2013-07-07 18:56:00,
2013-07-07 12:57:00,79.9,53.6,29.77,ESE,113,1.8,13.0,40,0.00,,,0.00,WUHU216HW,2013-07-07 18:57:00,
2013-07-07 12:59:00,80.3,53.8,29.77,ENE,68,6.3,13.0,40,0.00,,,0.00,WUHU216HW,2013-07-07 18:59:00,
2013-07-07 13:01:00,80.5,53.3,29.77,ENE,68,0.9,13.0,39,0.00,,,0.00,WUHU216HW,2013-07-07 19:01:00,
2013-07-07 13:02:00,80.5,53.3,29.77,North,0,2.5,8.7,39,0.00,,,0.00,WUHU216HW,2013-07-07 19:02:00,
2013-07-07 13:04:00,80.6,54.2,29.77,ENE,68,1.1,8.7,40,0.00,,,0.00,WUHU216HW,2013-07-07 19:04:00,
2013-07-07 13:06:00,81.2,54.6,29.77,SSE,158,2.9,6.3,40,0.00,,,0.00,WUHU216HW,2013-07-07 19:06:00,
2013-07-07 13:07:00,81.4,54.8,29.77,East,90,7.2,7.2,40,0.00,,,0.00,WUHU216HW,2013-07-07 19:07:00,
2013-07-07 13:09:00,82.4,55.8,29.77,ESE,113,5.1,8.5,40,0.00,,,0.00,WUHU216HW,2013-07-07 19:09:00,
2013-07-07 13:11:00,83.2,55.6,29.77,SW,225,4.0,8.5,39,0.00,,,0.00,WUHU216HW,2013-07-07 19:11:00,
2013-07-07 13:12:00,83.3,55.8,29.77,WSW,248,1.8,8.5,39,0.00,,,0.00,WUHU216HW,2013-07-07 19:12:00,
2013-07-07 13:13:00,83.5,56.0,29.77,ENE,68,2.9,8.5,39,0.00,,,0.00,WUHU216HW,2013-07-07 19:13:00,
2013-07-07 13:15:00,83.5,52.8,29.77,East,90,2.9,8.5,35,0.00,,,0.00,WUHU216HW,2013-07-07 19:15:00,
2013-07-07 13:16:00,83.2,54.1,29.77,SW,225,1.3,8.5,37,0.00,,,0.00,WUHU216HW,2013-07-07 19:16:00,
2013-07-07 13:17:00,83.2,54.1,29.77,WSW,248,1.1,8.5,37,0.00,,,0.00,WUHU216HW,2013-07-07 19:17:00,
2013-07-07 13:18:00,82.4,53.5,29.77,North,0,1.3,7.8,37,0.00,,,0.00,WUHU216HW,2013-07-07 19:18:00,
2013-07-07 13:20:00,81.4,52.5,29.76,NNW,338,1.8,7.2,37,0.00,,,0.00,WUHU216HW,2013-07-07 19:20:00,
2013-07-07 13:21:00,80.5,52.5,29.76,NNW,338,1.1,4.3,38,0.00,,,0.00,WUHU216HW,2013-07-07 19:21:00,
2013-07-07 13:22:00,80.3,52.3,29.76,NNE,23,1.6,4.3,38,0.00,,,0.00,WUHU216HW,2013-07-07 19:22:00,
2013-07-07 13:23:00,79.9,52.7,29.76,East,90,1.6,4.3,39,0.00,,,0.00,WUHU216HW,2013-07-07 19:23:00,
2013-07-07 13:25:00,79.7,52.6,29.76,ESE,113,0.9,3.8,39,0.00,,,0.00,WUHU216HW,2013-07-07 19:25:00,
2013-07-07 13:26:00,79.6,53.2,29.76,ESE,113,0.2,3.8,40,0.00,,,0.00,WUHU216HW,2013-07-07 19:26:00,
2013-07-07 13:27:00,79.6,53.2,29.76,ESE,113,0.2,3.8,40,0.00,,,0.00,WUHU216HW,2013-07-07 19:27:00,
2013-07-07 13:28:00,79.6,53.2,29.76,ENE,68,5.4,5.4,40,0.00,,,0.00,WUHU216HW,2013-07-07 19:28:00,
2013-07-07 13:30:00,79.0,52.8,29.76,NE,45,7.4,7.6,40,0.00,,,0.00,WUHU216HW,2013-07-07 19:30:00,
2013-07-07 13:31:00,78.8,52.6,29.76,NNE,23,3.6,7.6,40,0.00,,,0.00,WUHU216HW,2013-07-07 19:31:00,
2013-07-07 13:32:00,78.8,52.6,29.76,NNE,23,2.7,7.6,40,0.00,,,0.00,WUHU216HW,2013-07-07 19:32:00,
2013-07-07 13:33:00,78.7,52.4,29.76,NE,45,7.6,7.6,40,0.00,,,0.00,WUHU216HW,2013-07-07 19:33:00,
2013-07-07 13:35:00,78.3,52.7,29.75,NE,45,9.6,9.6,41,0.00,,,0.00,WUHU216HW,2013-07-07 19:35:00,
2013-07-07 13:36:00,78.3,53.3,29.75,NE,45,7.6,9.6,42,0.00,,,0.00,WUHU216HW,2013-07-07 19:36:00,
2013-07-07 13:37:00,78.3,52.7,29.75,NNE,23,8.1,9.6,41,0.00,,,0.00,WUHU216HW,2013-07-07 19:37:00,
2013-07-07 13:38:00,78.5,52.8,29.75,NE,45,7.6,9.6,41,0.00,,,0.00,WUHU216HW,2013-07-07 19:38:00,
2013-07-07 13:40:00,78.8,52.6,29.75,North,0,6.9,9.6,40,0.00,,,0.00,WUHU216HW,2013-07-07 19:40:00,
2013-07-07 13:42:00,79.0,53.4,29.75,North,0,1.8,9.6,41,0.00,,,0.00,WUHU216HW,2013-07-07 19:42:00,
2013-07-07 13:43:00,79.2,53.5,29.75,SSE,158,0.4,9.6,41,0.00,,,0.00,WUHU216HW,2013-07-07 19:43:00,
2013-07-07 13:44:00,79.6,53.8,29.75,ESE,113,0.4,9.6,41,0.00,,,0.00,WUHU216HW,2013-07-07 19:44:00,
2013-07-07 13:45:00,80.3,53.8,29.75,SW,225,2.0,9.6,40,0.00,,,0.00,WUHU216HW,2013-07-07 19:45:00,
2013-07-07 13:47:00,80.6,53.4,29.75,NE,45,4.7,8.5,39,0.00,,,0.00,WUHU216HW,2013-07-07 19:47:00,
2013-07-07 13:48:00,80.8,53.6,29.75,North,0,3.4,8.5,39,0.00,,,0.00,WUHU216HW,2013-07-07 19:48:00,
2013-07-07 13:49:00,81.0,53.7,29.75,North,0,3.6,8.5,39,0.00,,,0.00,WUHU216HW,2013-07-07 19:49:00,
2013-07-07 13:51:00,80.8,53.6,29.75,ESE,113,0.7,4.7,39,0.00,,,0.00,WUHU216HW,2013-07-07 19:51:00,
2013-07-07 13:52:00,81.0,53.7,29.75,ENE,68,6.3,6.3,39,0.00,,,0.00,WUHU216HW,2013-07-07 19:52:00,
2013-07-07 13:53:00,81.2,53.9,29.75,ENE,68,4.7,6.3,39,0.00,,,0.00,WUHU216HW,2013-07-07 19:53:00,
2013-07-07 13:54:00,81.4,53.3,29.75,North,0,7.6,7.8,38,0.00,,,0.00,WUHU216HW,2013-07-07 19:54:00,
2013-07-07 13:56:00,81.2,53.1,29.75,ENE,68,8.5,8.5,38,0.00,,,0.00,WUHU216HW,2013-07-07 19:56:00,
2013-07-07 13:57:00,81.0,53.7,29.75,North,0,8.3,8.5,39,0.00,,,0.00,WUHU216HW,2013-07-07 19:57:00,
2013-07-07 13:58:00,81.0,53.7,29.75,NNE,23,8.3,8.5,39,0.00,,,0.00,WUHU216HW,2013-07-07 19:58:00,
2013-07-07 13:59:00,80.6,52.7,29.75,North,0,4.3,11.0,38,0.00,,,0.00,WUHU216HW,2013-07-07 19:59:00,
2013-07-07 14:01:00,80.1,52.9,29.74,North,0,3.4,11.0,39,0.00,,,0.00,WUHU216HW,2013-07-07 20:01:00,
2013-07-07 14:02:00,80.1,53.7,29.74,North,0,7.2,11.0,40,0.00,,,0.00,WUHU216HW,2013-07-07 20:02:00,
2013-07-07 14:03:00,79.9,53.6,29.74,NNW,338,4.0,11.0,40,0.00,,,0.00,WUHU216HW,2013-07-07 20:03:00,
2013-07-07 14:04:00,79.9,52.7,29.74,NNW,338,2.9,11.0,39,0.00,,,0.00,WUHU216HW,2013-07-07 20:04:00,
2013-07-07 14:06:00,80.3,53.1,29.74,North,0,2.5,11.0,39,0.00,,,0.00,WUHU216HW,2013-07-07 20:06:00,
2013-07-07 14:07:00,80.5,53.3,29.74,NE,45,7.6,11.0,39,0.00,,,0.00,WUHU216HW,2013-07-07 20:07:00,
2013-07-07 14:08:00,80.5,52.5,29.74,NE,45,9.4,11.4,38,0.00,,,0.00,WUHU216HW,2013-07-07 20:08:00,
2013-07-07 14:09:00,80.5,52.5,29.74,NE,45,5.1,11.4,38,0.00,,,0.00,WUHU216HW,2013-07-07 20:09:00,
2013-07-07 14:11:00,80.6,52.7,29.74,NNE,23,3.8,11.4,38,0.00,,,0.00,WUHU216HW,2013-07-07 20:11:00,
2013-07-07 14:12:00,80.5,52.5,29.74,NNE,23,5.4,11.4,38,0.00,,,0.00,WUHU216HW,2013-07-07 20:12:00,
2013-07-07 14:13:00,80.5,52.5,29.74,NE,45,7.2,11.4,38,0.00,,,0.00,WUHU216HW,2013-07-07 20:13:00,
2013-07-07 14:14:00,80.5,52.5,29.74,NNE,23,8.7,11.4,38,0.00,,,0.00,WUHU216HW,2013-07-07 20:14:00,
2013-07-07 14:16:00,80.6,53.4,29.74,SE,135,1.1,11.4,39,0.00,,,0.00,WUHU216HW,2013-07-07 20:16:00,
2013-07-07 14:18:00,81.2,53.1,29.74,NNW,338,4.3,10.5,38,0.00,,,0.00,WUHU216HW,2013-07-07 20:18:00,
2013-07-07 14:19:00,81.2,53.1,29.74,NNW,338,4.7,10.5,38,0.00,,,0.00,WUHU216HW,2013-07-07 20:19:00,
2013-07-07 14:20:00,81.5,53.5,29.74,NNW,338,4.3,10.5,38,0.00,,,0.00,WUHU216HW,2013-07-07 20:20:00,
2013-07-07 14:22:00,82.1,53.1,29.74,North,0,0.9,8.7,37,0.00,,,0.00,WUHU216HW,2013-07-07 20:22:00,
2013-07-07 14:23:00,82.1,53.1,29.74,NNE,23,3.8,8.7,37,0.00,,,0.00,WUHU216HW,2013-07-07 20:23:00,
2013-07-07 14:24:00,82.1,53.1,29.74,NNE,23,2.5,8.7,37,0.00,,,0.00,WUHU216HW,2013-07-07 20:24:00,
2013-07-07 14:25:00,82.1,53.9,29.74,NNE,23,3.6,7.8,38,0.00,,,0.00,WUHU216HW,2013-07-07 20:25:00,
2013-07-07 14:27:00,82.1,53.1,29.74,North,0,6.3,9.6,37,0.00,,,0.00,WUHU216HW,2013-07-07 20:27:00,
2013-07-07 14:29:00,82.1,53.1,29.74,WNW,293,5.4,9.6,37,0.00,,,0.00,WUHU216HW,2013-07-07 20:29:00,
2013-07-07 14:31:00,82.1,53.1,29.74,North,0,5.4,9.6,37,0.00,,,0.00,WUHU216HW,2013-07-07 20:31:00,
2013-07-07 14:32:00,82.3,53.3,29.74,NNE,23,4.7,9.6,37,0.00,,,0.00,WUHU216HW,2013-07-07 20:32:00,
2013-07-07 14:34:00,82.1,53.1,29.73,NW,315,1.6,9.6,37,0.00,,,0.00,WUHU216HW,2013-07-07 20:34:00,
2013-07-07 14:36:00,82.3,51.7,29.74,North,0,5.1,8.3,35,0.00,,,0.00,WUHU216HW,2013-07-07 20:36:00,
2013-07-07 14:37:00,82.1,52.3,29.74,North,0,0.7,8.3,36,0.00,,,0.00,WUHU216HW,2013-07-07 20:37:00,
2013-07-07 14:39:00,82.4,52.7,29.74,NE,45,4.3,8.3,36,0.00,,,0.00,WUHU216HW,2013-07-07 20:39:00,
2013-07-07 14:41:00,82.4,52.7,29.74,North,0,0.7,8.3,36,0.00,,,0.00,WUHU216HW,2013-07-07 20:41:00,
2013-07-07 14:42:00,82.4,51.8,29.74,West,270,3.6,7.4,35,0.00,,,0.00,WUHU216HW,2013-07-07 20:42:00,
2013-07-07 14:44:00,82.3,52.5,29.74,NW,315,1.8,7.4,36,0.00,,,0.00,WUHU216HW,2013-07-07 20:44:00,
2013-07-07 14:45:00,82.1,52.3,29.74,NW,315,2.0,7.4,36,0.00,,,0.00,WUHU216HW,2013-07-07 20:45:00,
2013-07-07 14:46:00,82.1,53.1,29.74,NNW,338,5.6,5.6,37,0.00,,,0.00,WUHU216HW,2013-07-07 20:46:00,
2013-07-07 14:48:00,82.1,53.1,29.74,NNW,338,1.8,5.6,37,0.00,,,0.00,WUHU216HW,2013-07-07 20:48:00,
2013-07-07 14:49:00,82.1,53.1,29.74,NW,315,4.0,7.4,37,0.00,,,0.00,WUHU216HW,2013-07-07 20:49:00,
2013-07-07 14:50:00,82.1,53.1,29.74,NW,315,6.9,7.4,37,0.00,,,0.00,WUHU216HW,2013-07-07 20:50:00,
2013-07-07 14:51:00,82.1,53.1,29.74,North,0,5.4,7.4,37,0.00,,,0.00,WUHU216HW,2013-07-07 20:51:00,
2013-07-07 14:53:00,82.4,51.8,29.74,North,0,4.0,7.4,35,0.00,,,0.00,WUHU216HW,2013-07-07 20:53:00,
2013-07-07 14:54:00,82.6,52.0,29.74,NNW,338,4.5,7.4,35,0.00,,,0.00,WUHU216HW,2013-07-07 20:54:00,
2013-07-07 14:55:00,82.6,52.0,29.73,NNW,338,5.4,7.4,35,0.00,,,0.00,WUHU216HW,2013-07-07 20:55:00,
2013-07-07 14:57:00,82.8,52.2,29.73,NNW,338,2.2,8.5,35,0.00,,,0.00,WUHU216HW,2013-07-07 20:57:00,
2013-07-07 14:58:00,83.2,52.5,29.73,NNE,23,4.7,8.5,35,0.00,,,0.00,WUHU216HW,2013-07-07 20:58:00,
2013-07-07 14:59:00,83.2,52.5,29.73,NW,315,8.5,8.5,35,0.00,,,0.00,WUHU216HW,2013-07-07 20:59:00,
2013-07-07 15:00:00,83.5,52.8,29.73,North,0,6.7,8.5,35,0.00,,,0.00,WUHU216HW,2013-07-07 21:00:00,
2013-07-07 15:02:00,83.5,52.0,29.73,West,270,5.6,8.5,34,0.00,,,0.00,WUHU216HW,2013-07-07 21:02:00,
2013-07-07 15:04:00,83.5,52.0,29.73,NW,315,4.0,8.5,34,0.00,,,0.00,WUHU216HW,2013-07-07 21:04:00,
2013-07-07 15:05:00,83.5,52.0,29.73,NW,315,4.0,8.5,34,0.00,,,0.00,WUHU216HW,2013-07-07 21:05:00,
2013-07-07 15:07:00,84.1,52.5,29.73,WNW,293,1.8,8.5,34,0.00,,,0.00,WUHU216HW,2013-07-07 21:07:00,
2013-07-07 15:09:00,84.2,51.8,29.72,ENE,68,4.3,8.5,33,0.00,,,0.00,WUHU216HW,2013-07-07 21:09:00,
2013-07-07 15:10:00,84.2,51.8,29.72,NE,45,8.1,8.1,33,0.00,,,0.00,WUHU216HW,2013-07-07 21:10:00,
2013-07-07 15:11:00,84.1,51.8,29.72,NE,45,9.4,9.4,33,0.00,,,0.00,WUHU216HW,2013-07-07 21:11:00,
2013-07-07 15:12:00,84.2,51.8,29.72,ENE,68,6.9,9.4,33,0.00,,,0.00,WUHU216HW,2013-07-07 21:12:00,
2013-07-07 15:14:00,84.1,51.8,29.72,NE,45,4.3,9.4,33,0.00,,,0.00,WUHU216HW,2013-07-07 21:14:00,
2013-07-07 15:15:00,84.1,51.8,29.72,East,90,2.0,9.4,33,0.00,,,0.00,WUHU216HW,2013-07-07 21:15:00,
2013-07-07 15:16:00,84.1,52.5,29.72,East,90,2.0,9.4,34,0.00,,,0.00,WUHU216HW,2013-07-07 21:16:00,
2013-07-07 15:17:00,84.4,51.2,29.72,North,0,2.2,9.4,32,0.00,,,0.00,WUHU216HW,2013-07-07 21:17:00,
2013-07-07 15:19:00,84.8,51.6,29.72,East,90,2.5,9.4,32,0.00,,,0.00,WUHU216HW,2013-07-07 21:19:00,
2013-07-07 15:20:00,84.8,50.0,29.72,NE,45,7.8,9.4,30,0.00,,,0.00,WUHU216HW,2013-07-07 21:20:00,
2013-07-07 15:21:00,84.8,50.8,29.72,NE,45,1.8,7.8,31,0.00,,,0.00,WUHU216HW,2013-07-07 21:21:00,
2013-07-07 15:23:00,85.1,52.7,29.72,ESE,113,1.1,7.8,33,0.00,,,0.00,WUHU216HW,2013-07-07 21:23:00,
2013-07-07 15:24:00,85.7,53.2,29.73,SSE,158,1.1,7.8,33,0.00,,,0.00,WUHU216HW,2013-07-07 21:24:00,
2013-07-07 15:25:00,86.0,53.5,29.73,ESE,113,2.5,7.8,33,0.00,,,0.00,WUHU216HW,2013-07-07 21:25:00,
2013-07-07 15:26:00,86.8,50.6,29.73,ENE,68,4.0,7.8,29,0.00,,,0.00,WUHU216HW,2013-07-07 21:26:00,
2013-07-07 15:27:00,87.1,49.9,29.73,NNE,23,4.7,7.8,28,0.00,,,0.00,WUHU216HW,2013-07-07 21:27:00,
2013-07-07 15:28:00,87.1,51.0,29.73,NNE,23,3.4,7.8,29,0.00,,,0.00,WUHU216HW,2013-07-07 21:28:00,
2013-07-07 15:30:00,87.3,51.0,29.73,North,0,3.4,7.8,29,0.00,,,0.00,WUHU216HW,2013-07-07 21:30:00,
2013-07-07 15:31:00,87.3,50.0,29.73,WNW,293,2.5,4.7,28,0.00,,,0.00,WUHU216HW,2013-07-07 21:31:00,
2013-07-07 15:33:00,87.1,51.0,29.73,WNW,293,1.1,4.7,29,0.00,,,0.00,WUHU216HW,2013-07-07 21:33:00,
2013-07-07 15:35:00,87.5,51.2,29.73,East,90,4.0,4.7,29,0.00,,,0.00,WUHU216HW,2013-07-07 21:35:00,
2013-07-07 15:36:00,87.7,48.2,29.73,East,90,6.3,7.2,26,0.00,,,0.00,WUHU216HW,2013-07-07 21:36:00,
2013-07-07 15:38:00,87.8,50.4,29.72,ESE,113,7.6,7.6,28,0.00,,,0.00,WUHU216HW,2013-07-07 21:38:00,
2013-07-07 15:40:00,88.2,50.8,29.72,ESE,113,9.2,9.2,28,0.00,,,0.00,WUHU216HW,2013-07-07 21:40:00,
2013-07-07 15:41:00,88.6,51.0,29.73,ESE,113,9.8,9.8,28,0.00,,,0.00,WUHU216HW,2013-07-07 21:41:00,
2013-07-07 15:42:00,88.7,51.2,29.72,ESE,113,8.5,9.8,28,0.00,,,0.00,WUHU216HW,2013-07-07 21:42:00,
2013-07-07 15:43:00,88.9,49.2,29.73,East,90,9.2,10.7,26,0.00,,,0.00,WUHU216HW,2013-07-07 21:43:00,
2013-07-07 15:46:00,88.7,50.1,29.72,East,90,3.1,10.7,27,0.00,,,0.00,WUHU216HW,2013-07-07 21:46:00,
2013-07-07 15:47:00,88.9,49.2,29.72,East,90,4.5,10.7,26,0.00,,,0.00,WUHU216HW,2013-07-07 21:47:00,
2013-07-07 15:48:00,89.1,51.6,29.72,SE,135,6.9,10.7,28,0.00,,,0.00,WUHU216HW,2013-07-07 21:48:00,
2013-07-07 15:49:00,89.1,51.6,29.72,SE,135,6.9,10.7,28,0.00,,,0.00,WUHU216HW,2013-07-07 21:49:00,
2013-07-07 15:51:00,89.8,53.3,29.72,SSE,158,9.6,10.7,29,0.00,,,0.00,WUHU216HW,2013-07-07 21:51:00,
2013-07-07 15:52:00,90.2,53.6,29.72,SSE,158,6.3,12.1,29,0.00,,,0.00,WUHU216HW,2013-07-07 21:52:00,
2013-07-07 15:54:00,90.2,53.6,29.72,SE,135,9.6,12.1,29,0.00,,,0.00,WUHU216HW,2013-07-07 21:54:00,
2013-07-07 15:56:00,90.0,53.5,29.72,SSE,158,8.3,12.1,29,0.00,,,0.00,WUHU216HW,2013-07-07 21:56:00,
2013-07-07 15:58:00,90.0,53.5,29.72,SSE,158,8.3,12.1,29,0.00,,,0.00,WUHU216HW,2013-07-07 21:58:00,
2013-07-07 15:59:00,90.0,53.5,29.72,SSE,158,8.3,12.1,29,0.00,,,0.00,WUHU216HW,2013-07-07 21:59:00,
2013-07-07 16:01:00,90.4,53.7,29.72,SE,135,6.9,12.1,29,0.00,,,0.00,WUHU216HW,2013-07-07 22:01:00,
2013-07-07 16:03:00,90.5,53.9,29.72,South,180,4.7,12.1,29,0.00,,,0.00,WUHU216HW,2013-07-07 22:03:00,
2013-07-07 16:04:00,90.7,55.2,29.72,SSE,158,5.6,9.6,30,0.00,,,0.00,WUHU216HW,2013-07-07 22:04:00,
2013-07-07 16:06:00,91.1,55.4,29.72,South,180,5.4,9.2,30,0.00,,,0.00,WUHU216HW,2013-07-07 22:06:00,
2013-07-07 16:08:00,91.1,55.4,29.72,South,180,5.4,9.2,30,0.00,,,0.00,WUHU216HW,2013-07-07 22:08:00,
2013-07-07 16:09:00,91.1,55.4,29.72,South,180,5.4,9.2,30,0.00,,,0.00,WUHU216HW,2013-07-07 22:09:00,
2013-07-07 16:10:00,91.4,51.4,29.72,ESE,113,6.3,9.2,26,0.00,,,0.00,WUHU216HW,2013-07-07 22:10:00,
2013-07-07 16:11:00,91.4,50.3,29.72,East,90,6.3,9.2,25,0.00,,,0.00,WUHU216HW,2013-07-07 22:11:00,
2013-07-07 16:13:00,91.3,52.4,29.72,SSW,203,6.3,6.3,27,0.00,,,0.00,WUHU216HW,2013-07-07 22:13:00,
2013-07-07 16:14:00,91.3,54.5,29.72,South,180,6.0,6.3,29,0.00,,,0.00,WUHU216HW,2013-07-07 22:14:00,
2013-07-07 16:15:00,91.3,54.5,29.72,SSW,203,8.1,8.1,29,0.00,,,0.00,WUHU216HW,2013-07-07 22:15:00,
2013-07-07 16:16:00,91.3,52.4,29.72,South,180,7.6,8.1,27,0.00,,,0.00,WUHU216HW,2013-07-07 22:16:00,
2013-07-07 16:17:00,91.3,53.5,29.72,SSW,203,7.2,9.6,28,0.00,,,0.00,WUHU216HW,2013-07-07 22:17:00,
2013-07-07 16:18:00,91.4,52.5,29.72,SE,135,8.3,9.6,27,0.00,,,0.00,WUHU216HW,2013-07-07 22:18:00,
2013-07-07 16:20:00,91.4,52.5,29.72,SSE,158,6.9,9.6,27,0.00,,,0.00,WUHU216HW,2013-07-07 22:20:00,
2013-07-07 16:22:00,91.1,50.1,29.71,SE,135,8.5,9.6,25,0.00,,,0.00,WUHU216HW,2013-07-07 22:22:00,
2013-07-07 16:24:00,91.1,52.2,29.71,SE,135,6.9,9.6,27,0.00,,,0.00,WUHU216HW,2013-07-07 22:24:00,
2013-07-07 16:25:00,90.9,52.0,29.71,South,180,6.0,9.6,27,0.00,,,0.00,WUHU216HW,2013-07-07 22:25:00,
2013-07-07 16:27:00,91.1,52.2,29.71,SSW,203,7.8,9.8,27,0.00,,,0.00,WUHU216HW,2013-07-07 22:27:00,
2013-07-07 16:29:00,91.3,52.4,29.71,SSE,158,4.9,9.8,27,0.00,,,0.00,WUHU216HW,2013-07-07 22:29:00,
2013-07-07 16:30:00,91.4,51.4,29.71,SSE,158,8.9,9.8,26,0.00,,,0.00,WUHU216HW,2013-07-07 22:30:00,
2013-07-07 16:32:00,91.3,50.1,29.72,SE,135,10.5,10.5,25,0.00,,,0.00,WUHU216HW,2013-07-07 22:32:00,
2013-07-07 16:34:00,91.1,50.1,29.72,SE,135,6.9,11.4,25,0.00,,,0.00,WUHU216HW,2013-07-07 22:34:00,
2013-07-07 16:35:00,91.1,50.1,29.72,SSE,158,8.5,11.4,25,0.00,,,0.00,WUHU216HW,2013-07-07 22:35:00,
2013-07-07 16:37:00,91.1,50.1,29.71,ESE,113,4.0,11.4,25,0.00,,,0.00,WUHU216HW,2013-07-07 22:37:00,
2013-07-07 16:38:00,91.1,50.1,29.71,ESE,113,4.0,11.4,25,0.00,,,0.00,WUHU216HW,2013-07-07 22:38:00,
2013-07-07 16:40:00,91.1,50.1,29.71,ESE,113,4.0,11.4,25,0.00,,,0.00,WUHU216HW,2013-07-07 22:40:00,
2013-07-07 16:41:00,91.1,50.1,29.71,ESE,113,4.0,11.4,25,0.00,,,0.00,WUHU216HW,2013-07-07 22:41:00,
2013-07-07 16:43:00,91.8,50.6,29.71,SSE,158,3.4,11.4,25,0.00,,,0.00,WUHU216HW,2013-07-07 22:43:00,
2013-07-07 16:45:00,92.3,52.1,29.71,South,180,4.0,9.6,26,0.00,,,0.00,WUHU216HW,2013-07-07 22:45:00,
2013-07-07 16:46:00,92.5,52.3,29.71,SE,135,3.1,9.6,26,0.00,,,0.00,WUHU216HW,2013-07-07 22:46:00,
2013-07-07 16:47:00,92.7,52.4,29.71,South,180,3.6,6.3,26,0.00,,,0.00,WUHU216HW,2013-07-07 22:47:00,
2013-07-07 16:48:00,92.9,52.6,29.71,SE,135,5.4,6.3,26,0.00,,,0.00,WUHU216HW,2013-07-07 22:48:00,
2013-07-07 16:50:00,93.4,51.9,29.71,ESE,113,6.9,6.9,25,0.00,,,0.00,WUHU216HW,2013-07-07 22:50:00,
2013-07-07 16:51:00,93.8,52.2,29.71,South,180,6.0,7.6,25,0.00,,,0.00,WUHU216HW,2013-07-07 22:51:00,
2013-07-07 16:52:00,94.0,52.4,29.71,SE,135,5.4,7.6,25,0.00,,,0.00,WUHU216HW,2013-07-07 22:52:00,
2013-07-07 16:53:00,94.0,50.1,29.71,East,90,2.9,8.9,23,0.00,,,0.00,WUHU216HW,2013-07-07 22:53:00,
2013-07-07 16:55:00,94.0,52.4,29.71,SSW,203,2.5,8.9,25,0.00,,,0.00,WUHU216HW,2013-07-07 22:55:00,
2013-07-07 16:56:00,93.8,51.1,29.71,SE,135,9.8,9.8,24,0.00,,,0.00,WUHU216HW,2013-07-07 22:56:00,
2013-07-07 16:57:00,93.6,49.9,29.71,ESE,113,6.0,9.8,23,0.00,,,0.00,WUHU216HW,2013-07-07 22:57:00,
2013-07-07 16:58:00,93.6,49.9,29.71,SE,135,8.1,9.8,23,0.00,,,0.00,WUHU216HW,2013-07-07 22:58:00,
2013-07-07 16:59:00,93.4,49.7,29.71,SE,135,6.0,9.8,23,0.00,,,0.00,WUHU216HW,2013-07-07 22:59:00,
2013-07-07 17:00:00,93.2,49.6,29.71,ESE,113,10.1,11.6,23,0.00,,,0.00,WUHU216HW,2013-07-07 23:00:00,
2013-07-07 17:02:00,92.9,49.2,29.71,SSW,203,7.2,11.6,23,0.00,,,0.00,WUHU216HW,2013-07-07 23:02:00,
2013-07-07 17:03:00,92.9,50.4,29.71,SE,135,6.7,11.6,24,0.00,,,0.00,WUHU216HW,2013-07-07 23:03:00,
2013-07-07 17:04:00,92.9,50.4,29.71,ESE,113,9.2,11.6,24,0.00,,,0.00,WUHU216HW,2013-07-07 23:04:00,
2013-07-07 17:05:00,92.9,50.4,29.71,SSE,158,4.5,11.6,24,0.00,,,0.00,WUHU216HW,2013-07-07 23:05:00,
2013-07-07 17:07:00,92.9,50.4,29.71,SE,135,3.6,11.6,24,0.00,,,0.00,WUHU216HW,2013-07-07 23:07:00,
2013-07-07 17:08:00,92.9,49.2,29.70,SE,135,7.6,11.6,23,0.00,,,0.00,WUHU216HW,2013-07-07 23:08:00,
2013-07-07 17:09:00,92.9,49.2,29.70,East,90,4.7,11.6,23,0.00,,,0.00,WUHU216HW,2013-07-07 23:09:00,
2013-07-07 17:11:00,92.9,49.2,29.71,ENE,68,5.8,9.8,23,0.00,,,0.00,WUHU216HW,2013-07-07 23:11:00,
2013-07-07 17:12:00,92.9,49.2,29.70,East,90,2.7,9.2,23,0.00,,,0.00,WUHU216HW,2013-07-07 23:12:00,
2013-07-07 17:13:00,92.7,49.2,29.70,ENE,68,7.8,9.2,23,0.00,,,0.00,WUHU216HW,2013-07-07 23:13:00,
2013-07-07 17:14:00,92.9,49.2,29.71,ESE,113,5.4,9.2,23,0.00,,,0.00,WUHU216HW,2013-07-07 23:14:00,
2013-07-07 17:16:00,92.7,44.1,29.70,East,90,9.6,11.0,19,0.00,,,0.00,WUHU216HW,2013-07-07 23:16:00,
2013-07-07 17:17:00,91.8,46.2,29.70,East,90,10.3,11.0,21,0.00,,,0.00,WUHU216HW,2013-07-07 23:17:00,
2013-07-07 17:18:00,91.1,45.6,29.70,ENE,68,6.5,11.0,21,0.00,,,0.00,WUHU216HW,2013-07-07 23:18:00,
2013-07-07 17:19:00,90.4,45.0,29.70,NE,45,10.7,11.0,21,0.00,,,0.00,WUHU216HW,2013-07-07 23:19:00,
2013-07-07 17:21:00,89.1,45.1,29.70,NE,45,9.2,11.0,22,0.00,,,0.00,WUHU216HW,2013-07-07 23:21:00,
2013-07-07 17:22:00,88.7,45.9,29.70,East,90,6.0,11.0,23,0.00,,,0.00,WUHU216HW,2013-07-07 23:22:00,
2013-07-07 17:24:00,88.7,45.9,29.70,ESE,113,4.0,11.0,23,0.00,,,0.00,WUHU216HW,2013-07-07 23:24:00,
2013-07-07 17:25:00,88.9,46.0,29.70,ESE,113,3.6,10.7,23,0.00,,,0.00,WUHU216HW,2013-07-07 23:25:00,
2013-07-07 17:26:00,89.3,46.4,29.70,East,90,3.4,10.7,23,0.00,,,0.00,WUHU216HW,2013-07-07 23:26:00,
2013-07-07 17:27:00,89.5,45.4,29.70,NE,45,7.2,10.7,22,0.00,,,0.00,WUHU216HW,2013-07-07 23:27:00,
2013-07-07 17:29:00,89.3,45.3,29.70,NE,45,4.9,10.7,22,0.00,,,0.00,WUHU216HW,2013-07-07 23:29:00,
2013-07-07 17:30:00,88.9,44.9,29.70,East,90,5.8,9.4,22,0.00,,,0.00,WUHU216HW,2013-07-07 23:30:00,
2013-07-07 17:31:00,88.7,45.9,29.70,East,90,7.6,9.4,23,0.00,,,0.00,WUHU216HW,2013-07-07 23:31:00,
2013-07-07 17:32:00,88.7,45.9,29.70,ESE,113,8.7,9.4,23,0.00,,,0.00,WUHU216HW,2013-07-07 23:32:00,
2013-07-07 17:34:00,88.7,45.9,29.70,ESE,113,3.4,9.4,23,0.00,,,0.00,WUHU216HW,2013-07-07 23:34:00,
2013-07-07 17:35:00,88.7,47.0,29.70,ESE,113,2.5,9.4,24,0.00,,,0.00,WUHU216HW,2013-07-07 23:35:00,
2013-07-07 17:36:00,88.9,47.1,29.69,SSE,158,3.8,9.4,24,0.00,,,0.00,WUHU216HW,2013-07-07 23:36:00,
2013-07-07 17:37:00,89.1,47.3,29.70,South,180,2.5,9.4,24,0.00,,,0.00,WUHU216HW,2013-07-07 23:37:00,
2013-07-07 17:39:00,89.3,47.4,29.70,SW,225,4.0,8.7,24,0.00,,,0.00,WUHU216HW,2013-07-07 23:39:00,
2013-07-07 17:40:00,89.5,47.5,29.70,SW,225,4.0,8.7,24,0.00,,,0.00,WUHU216HW,2013-07-07 23:40:00,
2013-07-07 17:41:00,89.6,46.6,29.70,North,0,1.1,8.7,23,0.00,,,0.00,WUHU216HW,2013-07-07 23:41:00,
2013-07-07 17:42:00,89.6,47.7,29.70,SW,225,0.7,8.7,24,0.00,,,0.00,WUHU216HW,2013-07-07 23:42:00,
2013-07-07 17:44:00,89.6,47.7,29.70,WSW,248,2.5,4.7,24,0.00,,,0.00,WUHU216HW,2013-07-07 23:44:00,
2013-07-07 17:45:00,89.6,47.7,29.70,WSW,248,2.5,4.7,24,0.00,,,0.00,WUHU216HW,2013-07-07 23:45:00,
2013-07-07 17:46:00,89.6,47.7,29.70,SSE,158,1.8,4.5,24,0.00,,,0.00,WUHU216HW,2013-07-07 23:46:00,
2013-07-07 17:47:00,89.6,47.7,29.70,SE,135,2.2,4.5,24,0.00,,,0.00,WUHU216HW,2013-07-07 23:47:00,
2013-07-07 17:49:00,89.5,46.4,29.70,SE,135,6.9,6.9,23,0.00,,,0.00,WUHU216HW,2013-07-07 23:49:00,
2013-07-07 17:50:00,89.3,47.4,29.71,SE,135,4.9,6.9,24,0.00,,,0.00,WUHU216HW,2013-07-07 23:50:00,
2013-07-07 17:51:00,89.3,47.4,29.71,SSE,158,8.7,8.7,24,0.00,,,0.00,WUHU216HW,2013-07-07 23:51:00,
2013-07-07 17:52:00,88.9,47.1,29.71,East,90,6.0,8.7,24,0.00,,,0.00,WUHU216HW,2013-07-07 23:52:00,
2013-07-07 17:53:00,88.7,47.0,29.71,ESE,113,4.0,8.7,24,0.00,,,0.00,WUHU216HW,2013-07-07 23:53:00,
2013-07-07 17:55:00,88.4,47.7,29.71,SSE,158,8.5,8.7,25,0.00,,,0.00,WUHU216HW,2013-07-07 23:55:00,
2013-07-07 17:56:00,88.2,47.5,29.71,SE,135,7.2,9.8,25,0.00,,,0.00,WUHU216HW,2013-07-07 23:56:00,
2013-07-07 17:57:00,87.8,47.3,29.71,SE,135,7.6,10.5,25,0.00,,,0.00,WUHU216HW,2013-07-07 23:57:00,
2013-07-07 17:58:00,87.7,47.1,29.71,SE,135,7.6,10.5,25,0.00,,,0.00,WUHU216HW,2013-07-07 23:58:00,
2013-07-07 18:00:00,87.5,48.0,29.71,SSE,158,11.2,11.2,26,0.00,,,0.00,WUHU216HW,2013-07-08 00:00:00,
2013-07-07 18:01:00,87.3,47.9,29.71,SE,135,17.2,17.2,26,0.00,,,0.00,WUHU216HW,2013-07-08 00:01:00,
2013-07-07 18:02:00,86.8,49.6,29.71,South,180,20.6,20.6,28,0.00,,,0.00,WUHU216HW,2013-07-08 00:02:00,
2013-07-07 18:04:00,86.2,50.2,29.71,South,180,16.3,20.6,29,0.00,,,0.00,WUHU216HW,2013-07-08 00:04:00,
2013-07-07 18:05:00,85.5,49.6,29.71,South,180,12.3,20.6,29,0.00,,,0.00,WUHU216HW,2013-07-08 00:05:00,
2013-07-07 18:06:00,85.3,49.4,29.71,South,180,12.3,20.6,29,0.00,,,0.00,WUHU216HW,2013-07-08 00:06:00,
2013-07-07 18:07:00,84.8,49.0,29.71,SSE,158,13.6,20.6,29,0.00,,,0.00,WUHU216HW,2013-07-08 00:07:00,
2013-07-07 18:09:00,84.6,48.8,29.71,SSE,158,18.6,20.6,29,0.00,,,0.00,WUHU216HW,2013-07-08 00:09:00,
2013-07-07 18:11:00,84.1,49.3,29.71,SE,135,8.9,20.6,30,0.00,,,0.00,WUHU216HW,2013-07-08 00:11:00,
2013-07-07 18:12:00,83.9,48.2,29.71,SE,135,13.4,20.6,29,0.00,,,0.00,WUHU216HW,2013-07-08 00:12:00,
2013-07-07 18:13:00,83.9,48.2,29.71,South,180,10.5,19.2,29,0.00,,,0.00,WUHU216HW,2013-07-08 00:13:00,
2013-07-07 18:14:00,83.7,48.0,29.71,South,180,10.1,18.6,29,0.00,,,0.00,WUHU216HW,2013-07-08 00:14:00,
2013-07-07 18:16:00,83.5,47.8,29.71,South,180,11.2,18.6,29,0.00,,,0.00,WUHU216HW,2013-07-08 00:16:00,
2013-07-07 18:17:00,83.5,47.8,29.71,SE,135,12.8,18.6,29,0.00,,,0.00,WUHU216HW,2013-07-08 00:17:00,
2013-07-07 18:18:00,83.5,47.8,29.71,South,180,15.0,18.6,29,0.00,,,0.00,WUHU216HW,2013-07-08 00:18:00,
2013-07-07 18:19:00,83.5,47.8,29.71,SSE,158,14.3,15.0,29,0.00,,,0.00,WUHU216HW,2013-07-08 00:19:00,
2013-07-07 18:21:00,83.2,46.5,29.71,SSE,158,15.7,16.8,28,0.00,,,0.00,WUHU216HW,2013-07-08 00:21:00,
2013-07-07 18:22:00,83.2,47.5,29.71,South,180,14.5,16.8,29,0.00,,,0.00,WUHU216HW,2013-07-08 00:22:00,
2013-07-07 18:23:00,83.2,47.5,29.71,SSW,203,15.0,16.8,29,0.00,,,0.00,WUHU216HW,2013-07-08 00:23:00,
2013-07-07 18:24:00,83.0,47.4,29.71,South,180,13.9,16.8,29,0.00,,,0.00,WUHU216HW,2013-07-08 00:24:00,
2013-07-07 18:26:00,82.8,47.2,29.71,WSW,248,14.5,17.4,29,0.00,,,0.00,WUHU216HW,2013-07-08 00:26:00,
2013-07-07 18:27:00,82.6,47.0,29.71,SSW,203,13.2,17.4,29,0.00,,,0.00,WUHU216HW,2013-07-08 00:27:00,
2013-07-07 18:28:00,82.4,46.8,29.71,South,180,15.9,17.4,29,0.00,,,0.00,WUHU216HW,2013-07-08 00:28:00,
2013-07-07 18:29:00,82.4,46.8,29.71,South,180,8.9,17.4,29,0.00,,,0.00,WUHU216HW,2013-07-08 00:29:00,
2013-07-07 18:31:00,82.4,46.8,29.71,SSW,203,13.4,17.4,29,0.00,,,0.00,WUHU216HW,2013-07-08 00:31:00,
2013-07-07 18:32:00,82.4,46.8,29.71,WSW,248,11.6,17.4,29,0.00,,,0.00,WUHU216HW,2013-07-08 00:32:00,
2013-07-07 18:33:00,82.4,46.8,29.71,SSW,203,11.4,17.4,29,0.00,,,0.00,WUHU216HW,2013-07-08 00:33:00,
2013-07-07 18:35:00,82.4,46.8,29.71,SW,225,11.2,17.4,29,0.00,,,0.00,WUHU216HW,2013-07-08 00:35:00,
2013-07-07 18:37:00,82.3,45.6,29.71,WSW,248,12.8,17.4,28,0.00,,,0.00,WUHU216HW,2013-07-08 00:37:00,
2013-07-07 18:38:00,82.3,45.6,29.71,South,180,11.6,17.4,28,0.00,,,0.00,WUHU216HW,2013-07-08 00:38:00,
2013-07-07 18:41:00,82.3,45.6,29.70,SE,135,17.9,17.9,28,0.00,,,0.00,WUHU216HW,2013-07-08 00:41:00,
2013-07-07 18:42:00,82.1,46.5,29.70,SSE,158,14.8,17.9,29,0.00,,,0.00,WUHU216HW,2013-07-08 00:42:00,
2013-07-07 18:43:00,81.9,46.5,29.70,SSE,158,13.9,17.9,29,0.00,,,0.00,WUHU216HW,2013-07-08 00:43:00,
2013-07-07 18:46:00,81.4,46.0,29.71,South,180,16.3,17.9,29,0.00,,,0.00,WUHU216HW,2013-07-08 00:46:00,
2013-07-07 18:47:00,81.2,45.8,29.71,SSE,158,16.6,17.9,29,0.00,,,0.00,WUHU216HW,2013-07-08 00:47:00,
2013-07-07 18:48:00,81.0,45.7,29.71,SSE,158,11.4,17.9,29,0.00,,,0.00,WUHU216HW,2013-07-08 00:48:00,
2013-07-07 18:51:00,80.3,46.1,29.71,South,180,13.9,17.9,30,0.00,,,0.00,WUHU216HW,2013-07-08 00:51:00,
2013-07-07 18:52:00,80.3,46.1,29.71,SE,135,13.4,16.8,30,0.00,,,0.00,WUHU216HW,2013-07-08 00:52:00,
2013-07-07 18:53:00,79.9,45.8,29.71,South,180,14.8,16.8,30,0.00,,,0.00,WUHU216HW,2013-07-08 00:53:00,
2013-07-07 18:56:00,79.6,47.0,29.71,South,180,18.1,18.1,32,0.00,,,0.00,WUHU216HW,2013-07-08 00:56:00,
2013-07-07 18:57:00,79.2,48.2,29.71,SSW,203,17.2,18.1,34,0.00,,,0.00,WUHU216HW,2013-07-08 00:57:00,
2013-07-07 18:58:00,78.8,48.7,29.71,South,180,18.8,18.8,35,0.00,,,0.00,WUHU216HW,2013-07-08 00:58:00,
2013-07-07 18:59:00,78.8,48.7,29.71,SSE,158,15.2,18.8,35,0.00,,,0.00,WUHU216HW,2013-07-08 00:59:00,
2013-07-07 19:01:00,78.1,50.4,29.71,SSW,203,13.6,18.8,38,0.00,,,0.00,WUHU216HW,2013-07-08 01:01:00,
2013-07-07 19:02:00,77.9,50.2,29.71,SW,225,11.4,18.8,38,0.00,,,0.00,WUHU216HW,2013-07-08 01:02:00,
2013-07-07 19:03:00,77.8,50.0,29.71,SW,225,16.3,18.8,38,0.00,,,0.00,WUHU216HW,2013-07-08 01:03:00,
2013-07-07 19:04:00,77.6,49.9,29.72,SW,225,13.4,18.8,38,0.00,,,0.00,WUHU216HW,2013-07-08 01:04:00,
2013-07-07 19:06:00,77.0,50.2,29.72,SW,225,13.0,18.8,39,0.00,,,0.00,WUHU216HW,2013-07-08 01:06:00,
2013-07-07 19:07:00,76.7,50.6,29.72,SSW,203,11.2,18.8,40,0.00,,,0.00,WUHU216HW,2013-07-08 01:07:00,
2013-07-07 19:08:00,76.7,51.2,29.73,SW,225,11.4,18.1,41,0.00,,,0.00,WUHU216HW,2013-07-08 01:08:00,
2013-07-07 19:09:00,76.3,51.0,29.73,WSW,248,11.4,17.9,41,0.00,,,0.00,WUHU216HW,2013-07-08 01:09:00,
2013-07-07 19:11:00,76.0,51.2,29.73,SW,225,16.1,17.9,42,0.00,,,0.00,WUHU216HW,2013-07-08 01:11:00,
2013-07-07 19:13:00,75.4,50.7,29.74,SW,225,17.0,17.0,42,0.00,,,0.00,WUHU216HW,2013-07-08 01:13:00,
2013-07-07 19:14:00,75.1,51.6,29.74,SW,225,16.3,18.1,44,0.00,,,0.00,WUHU216HW,2013-07-08 01:14:00,
2013-07-07 19:17:00,74.3,52.1,29.74,SSW,203,14.8,18.1,46,0.00,,,0.00,WUHU216HW,2013-07-08 01:17:00,
2013-07-07 19:18:00,74.2,51.9,29.74,SW,225,16.3,18.1,46,0.00,,,0.00,WUHU216HW,2013-07-08 01:18:00,
2013-07-07 19:19:00,74.2,52.6,29.74,SW,225,12.8,18.1,47,0.00,,,0.00,WUHU216HW,2013-07-08 01:19:00,
2013-07-07 19:23:00,73.6,53.2,29.73,SSW,203,10.3,18.1,49,0.01,,,0.01,WUHU216HW,2013-07-08 01:23:00,
2013-07-07 19:24:00,73.6,53.2,29.73,SSW,203,10.3,17.0,49,0.01,,,0.01,WUHU216HW,2013-07-08 01:24:00,
2013-07-07 19:28:00,72.7,54.0,29.73,SSW,203,10.5,16.3,52,0.03,,,0.03,WUHU216HW,2013-07-08 01:28:00,
2013-07-07 19:29:00,72.7,54.0,29.73,South,180,8.9,12.1,52,0.03,,,0.03,WUHU216HW,2013-07-08 01:29:00,
2013-07-07 19:33:00,72.2,54.0,29.73,South,180,7.6,12.1,53,0.03,,,0.03,WUHU216HW,2013-07-08 01:33:00,
2013-07-07 19:34:00,72.2,53.6,29.73,SSW,203,7.2,12.1,52,0.03,,,0.03,WUHU216HW,2013-07-08 01:34:00,
2013-07-07 19:35:00,72.2,53.6,29.72,SSW,203,7.2,12.1,52,0.03,,,0.03,WUHU216HW,2013-07-08 01:35:00,
2013-07-07 19:39:00,72.0,53.8,29.72,South,180,9.4,10.5,53,0.03,,,0.03,WUHU216HW,2013-07-08 01:39:00,
2013-07-07 19:40:00,72.0,53.8,29.72,South,180,9.4,10.5,53,0.03,,,0.03,WUHU216HW,2013-07-08 01:40:00,
2013-07-07 19:44:00,72.2,55.5,29.72,WSW,248,6.0,10.5,56,0.03,,,0.03,WUHU216HW,2013-07-08 01:44:00,
2013-07-07 19:45:00,72.4,56.2,29.72,SW,225,6.9,10.5,57,0.03,,,0.03,WUHU216HW,2013-07-08 01:45:00,
2013-07-07 19:49:00,73.3,55.0,29.72,West,270,8.5,14.5,53,0.03,,,0.03,WUHU216HW,2013-07-08 01:49:00,
2013-07-07 19:50:00,73.1,54.8,29.72,West,270,11.2,14.5,53,0.03,,,0.03,WUHU216HW,2013-07-08 01:50:00,
2013-07-07 19:54:00,72.5,54.8,29.72,WSW,248,7.6,14.5,54,0.03,,,0.03,WUHU216HW,2013-07-08 01:54:00,
2013-07-07 19:55:00,72.5,54.8,29.72,WSW,248,8.5,14.5,54,0.03,,,0.03,WUHU216HW,2013-07-08 01:55:00,
2013-07-07 19:56:00,72.5,54.8,29.72,West,270,12.1,14.5,54,0.03,,,0.03,WUHU216HW,2013-07-08 01:56:00,
2013-07-07 19:59:00,72.7,54.0,29.72,West,270,8.9,13.0,52,0.03,,,0.03,WUHU216HW,2013-07-08 01:59:00,
2013-07-07 20:00:00,72.7,54.0,29.72,West,270,8.9,13.0,52,0.03,,,0.03,WUHU216HW,2013-07-08 02:00:00,
2013-07-07 20:01:00,72.9,54.2,29.72,WNW,293,5.4,13.0,52,0.03,,,0.03,WUHU216HW,2013-07-08 02:01:00,
2013-07-07 20:05:00,73.4,54.2,29.73,SSW,203,1.1,13.0,51,0.03,,,0.03,WUHU216HW,2013-07-08 02:05:00,
2013-07-07 20:06:00,73.8,54.6,29.73,SSE,158,3.1,13.0,51,0.03,,,0.03,WUHU216HW,2013-07-08 02:06:00,
2013-07-07 20:10:00,74.2,55.4,29.73,South,180,2.0,8.9,52,0.03,,,0.03,WUHU216HW,2013-07-08 02:10:00,
2013-07-07 20:11:00,74.2,55.4,29.73,SSW,203,2.5,7.4,52,0.03,,,0.03,WUHU216HW,2013-07-08 02:11:00,
2013-07-07 20:15:00,74.3,55.1,29.73,SE,135,3.4,3.4,51,0.03,,,0.03,WUHU216HW,2013-07-08 02:15:00,
2013-07-07 20:16:00,74.3,55.1,29.73,SE,135,3.4,3.4,51,0.03,,,0.03,WUHU216HW,2013-07-08 02:16:00,
2013-07-07 20:17:00,74.3,55.1,29.73,SSE,158,2.5,3.4,51,0.03,,,0.03,WUHU216HW,2013-07-08 02:17:00,
2013-07-07 20:20:00,74.2,54.9,29.73,SSW,203,1.8,3.4,51,0.02,,,0.03,WUHU216HW,2013-07-08 02:20:00,
2013-07-07 20:22:00,74.2,54.9,29.73,SSE,158,1.1,3.4,51,0.02,,,0.03,WUHU216HW,2013-07-08 02:22:00,
2013-07-07 20:25:00,73.8,54.6,29.73,SW,225,1.6,3.4,51,0.02,,,0.03,WUHU216HW,2013-07-08 02:25:00,
2013-07-07 20:27:00,73.8,55.0,29.73,SW,225,2.9,2.9,52,0.00,,,0.03,WUHU216HW,2013-07-08 02:27:00,
2013-07-07 20:30:00,73.4,54.6,29.73,WSW,248,3.1,3.1,52,0.00,,,0.03,WUHU216HW,2013-07-08 02:30:00,
2013-07-07 20:32:00,73.3,55.0,29.73,WSW,248,4.0,4.0,53,0.00,,,0.03,WUHU216HW,2013-07-08 02:32:00,
2013-07-07 20:35:00,72.4,54.7,29.73,WSW,248,4.0,4.0,54,0.00,,,0.03,WUHU216HW,2013-07-08 02:35:00,
2013-07-07 20:36:00,72.4,54.7,29.73,WSW,248,4.0,4.0,54,0.00,,,0.03,WUHU216HW,2013-07-08 02:36:00,
2013-07-07 20:37:00,71.8,55.2,29.73,North,0,0.0,4.0,56,0.00,,,0.03,WUHU216HW,2013-07-08 02:37:00,
2013-07-07 20:41:00,71.1,55.1,29.73,North,0,0.0,4.0,57,0.00,,,0.03,WUHU216HW,2013-07-08 02:41:00,
2013-07-07 20:42:00,70.7,54.3,29.73,North,0,0.0,4.0,56,0.00,,,0.03,WUHU216HW,2013-07-08 02:42:00,
2013-07-07 20:46:00,70.4,53.9,29.73,North,0,0.0,4.0,56,0.00,,,0.03,WUHU216HW,2013-07-08 02:46:00,
2013-07-07 20:48:00,70.2,55.3,29.73,WSW,248,5.8,5.8,59,0.00,,,0.03,WUHU216HW,2013-07-08 02:48:00,
2013-07-07 20:51:00,68.9,54.5,29.73,WSW,248,6.9,6.9,60,0.00,,,0.03,WUHU216HW,2013-07-08 02:51:00,
2013-07-07 20:53:00,68.4,54.5,29.73,West,270,6.9,6.9,61,0.00,,,0.03,WUHU216HW,2013-07-08 02:53:00,
2013-07-07 20:56:00,67.9,54.4,29.73,West,270,4.7,6.9,62,0.00,,,0.03,WUHU216HW,2013-07-08 02:56:00,
2013-07-07 20:58:00,67.7,53.7,29.73,West,270,6.7,6.9,61,0.00,,,0.03,WUHU216HW,2013-07-08 02:58:00,
2013-07-07 21:01:00,67.3,53.8,29.73,WSW,248,5.4,6.9,62,0.00,,,0.03,WUHU216HW,2013-07-08 03:01:00,
2013-07-07 21:02:00,67.3,53.8,29.73,WSW,248,5.8,6.9,62,0.00,,,0.03,WUHU216HW,2013-07-08 03:02:00,
2013-07-07 21:03:00,67.1,54.1,29.73,West,270,5.4,6.9,63,0.00,,,0.03,WUHU216HW,2013-07-08 03:03:00,
2013-07-07 21:04:00,67.1,54.1,29.73,WSW,248,5.1,6.9,63,0.00,,,0.03,WUHU216HW,2013-07-08 03:04:00,
2013-07-07 21:06:00,67.0,53.6,29.73,WSW,248,5.4,6.7,62,0.00,,,0.03,WUHU216HW,2013-07-08 03:06:00,
2013-07-07 21:08:00,66.8,53.7,29.73,West,270,5.6,6.7,63,0.00,,,0.03,WUHU216HW,2013-07-08 03:08:00,
2013-07-07 21:09:00,66.8,54.2,29.73,West,270,5.8,6.3,64,0.00,,,0.03,WUHU216HW,2013-07-08 03:09:00,
2013-07-07 21:11:00,66.6,53.7,29.73,West,270,5.4,6.3,63,0.00,,,0.03,WUHU216HW,2013-07-08 03:11:00,
2013-07-07 21:12:00,66.6,53.7,29.73,West,270,5.4,6.3,63,0.00,,,0.03,WUHU216HW,2013-07-08 03:12:00,
2013-07-07 21:14:00,66.2,53.6,29.73,West,270,5.6,6.3,64,0.00,,,0.03,WUHU216HW,2013-07-08 03:14:00,
2013-07-07 21:15:00,66.1,53.9,29.73,West,270,5.1,6.3,65,0.00,,,0.03,WUHU216HW,2013-07-08 03:15:00,
2013-07-07 21:16:00,65.9,53.4,29.73,West,270,4.0,6.3,64,0.00,,,0.03,WUHU216HW,2013-07-08 03:16:00,
2013-07-07 21:17:00,65.9,53.4,29.74,West,270,5.4,6.3,64,0.00,,,0.03,WUHU216HW,2013-07-08 03:17:00,
2013-07-07 21:19:00,65.7,53.6,29.74,West,270,6.3,6.3,65,0.00,,,0.03,WUHU216HW,2013-07-08 03:19:00,
2013-07-07 21:20:00,65.5,53.4,29.74,WSW,248,6.0,6.3,65,0.00,,,0.03,WUHU216HW,2013-07-08 03:20:00,
2013-07-07 21:22:00,65.3,53.3,29.74,West,270,5.4,7.2,65,0.00,,,0.03,WUHU216HW,2013-07-08 03:22:00,
2013-07-07 21:24:00,65.3,53.3,29.74,West,270,7.2,7.2,65,0.00,,,0.03,WUHU216HW,2013-07-08 03:24:00,
2013-07-07 21:25:00,65.2,53.1,29.74,West,270,6.3,7.6,65,0.00,,,0.03,WUHU216HW,2013-07-08 03:25:00,
2013-07-07 21:27:00,65.2,53.1,29.74,WSW,248,5.8,7.6,65,0.00,,,0.03,WUHU216HW,2013-07-08 03:27:00,
2013-07-07 21:30:00,65.2,53.1,29.74,West,270,6.5,8.1,65,0.00,,,0.03,WUHU216HW,2013-07-08 03:30:00,
2013-07-07 21:32:00,65.2,53.1,29.74,WNW,293,4.7,8.1,65,0.00,,,0.03,WUHU216HW,2013-07-08 03:32:00,
2013-07-07 21:35:00,65.0,52.9,29.75,West,270,8.5,8.5,65,0.00,,,0.03,WUHU216HW,2013-07-08 03:35:00,
2013-07-07 21:36:00,65.0,52.5,29.75,West,270,6.5,8.5,64,0.00,,,0.03,WUHU216HW,2013-07-08 03:36:00,
2013-07-07 21:37:00,64.8,52.8,29.75,West,270,6.3,8.5,65,0.00,,,0.03,WUHU216HW,2013-07-08 03:37:00,
2013-07-07 21:40:00,64.6,52.1,29.75,West,270,6.5,8.5,64,0.00,,,0.03,WUHU216HW,2013-07-08 03:40:00,
2013-07-07 21:41:00,64.4,51.9,29.75,WSW,248,6.7,8.5,64,0.00,,,0.03,WUHU216HW,2013-07-08 03:41:00,
2013-07-07 21:42:00,64.4,52.4,29.75,West,270,7.4,8.5,65,0.00,,,0.03,WUHU216HW,2013-07-08 03:42:00,
2013-07-07 21:43:00,64.4,52.4,29.75,West,270,7.4,8.5,65,0.00,,,0.03,WUHU216HW,2013-07-08 03:43:00,
2013-07-07 21:45:00,64.4,51.9,29.75,West,270,7.8,7.8,64,0.00,,,0.03,WUHU216HW,2013-07-08 03:45:00,
2013-07-07 21:46:00,64.3,51.8,29.75,West,270,7.6,7.8,64,0.00,,,0.03,WUHU216HW,2013-07-08 03:46:00,
2013-07-07 21:47:00,64.3,52.2,29.75,West,270,7.4,7.8,65,0.00,,,0.03,WUHU216HW,2013-07-08 03:47:00,
2013-07-07 21:48:00,64.3,52.2,29.75,West,270,7.6,7.8,65,0.00,,,0.03,WUHU216HW,2013-07-08 03:48:00,
2013-07-07 21:51:00,64.3,51.8,29.75,West,270,7.2,7.8,64,0.00,,,0.03,WUHU216HW,2013-07-08 03:51:00,
2013-07-07 21:52:00,64.3,52.2,29.75,WSW,248,7.8,7.8,65,0.00,,,0.03,WUHU216HW,2013-07-08 03:52:00,
2013-07-07 21:53:00,64.3,51.8,29.75,West,270,7.6,7.8,64,0.00,,,0.03,WUHU216HW,2013-07-08 03:53:00,
2013-07-07 21:56:00,64.3,51.8,29.75,West,270,6.3,7.8,64,0.00,,,0.03,WUHU216HW,2013-07-08 03:56:00,
2013-07-07 21:57:00,64.3,51.8,29.75,West,270,6.9,7.8,64,0.00,,,0.03,WUHU216HW,2013-07-08 03:57:00,
2013-07-07 21:58:00,64.3,52.2,29.75,WSW,248,6.9,7.8,65,0.00,,,0.03,WUHU216HW,2013-07-08 03:58:00,
2013-07-07 22:01:00,64.1,51.6,29.75,West,270,6.9,7.8,64,0.00,,,0.03,WUHU216HW,2013-07-08 04:01:00,
2013-07-07 22:06:00,63.9,51.5,29.75,West,270,8.3,8.5,64,0.00,,,0.03,WUHU216HW,2013-07-08 04:06:00,
2013-07-07 22:11:00,63.7,51.3,29.76,West,270,8.3,9.8,64,0.00,,,0.03,WUHU216HW,2013-07-08 04:11:00,
2013-07-07 22:16:00,63.7,51.3,29.76,West,270,8.7,10.3,64,0.00,,,0.03,WUHU216HW,2013-07-08 04:16:00,
2013-07-07 22:17:00,63.7,51.3,29.76,West,270,8.5,10.3,64,0.00,,,0.03,WUHU216HW,2013-07-08 04:17:00,
2013-07-07 22:21:00,63.7,50.9,29.76,West,270,8.9,10.3,63,0.00,,,0.03,WUHU216HW,2013-07-08 04:21:00,
2013-07-07 22:22:00,63.7,50.9,29.76,WSW,248,9.6,10.3,63,0.00,,,0.03,WUHU216HW,2013-07-08 04:22:00,
2013-07-07 22:26:00,63.7,50.9,29.76,West,270,8.3,11.4,63,0.00,,,0.03,WUHU216HW,2013-07-08 04:26:00,
2013-07-07 22:27:00,63.9,51.0,29.76,WSW,248,9.2,11.4,63,0.00,,,0.03,WUHU216HW,2013-07-08 04:27:00,
2013-07-07 22:31:00,63.9,51.0,29.76,WSW,248,11.4,12.8,63,0.00,,,0.03,WUHU216HW,2013-07-08 04:31:00,
2013-07-07 22:32:00,63.9,50.6,29.76,West,270,9.2,12.8,62,0.00,,,0.03,WUHU216HW,2013-07-08 04:32:00,
2013-07-07 22:36:00,63.7,50.9,29.76,West,270,10.7,12.8,63,0.00,,,0.03,WUHU216HW,2013-07-08 04:36:00,
2013-07-07 22:37:00,63.7,50.9,29.76,West,270,10.7,12.8,63,0.00,,,0.03,WUHU216HW,2013-07-08 04:37:00,
2013-07-07 22:38:00,63.7,50.4,29.76,WSW,248,10.5,12.8,62,0.00,,,0.03,WUHU216HW,2013-07-08 04:38:00,
2013-07-07 22:41:00,63.7,50.9,29.76,WSW,248,11.6,12.3,63,0.00,,,0.03,WUHU216HW,2013-07-08 04:41:00,
2013-07-07 22:42:00,63.7,50.4,29.77,WSW,248,12.1,12.3,62,0.00,,,0.03,WUHU216HW,2013-07-08 04:42:00,
2013-07-07 22:43:00,63.7,50.4,29.77,West,270,10.7,12.3,62,0.00,,,0.03,WUHU216HW,2013-07-08 04:43:00,
2013-07-07 22:46:00,63.5,50.2,29.76,West,270,10.5,12.1,62,0.00,,,0.03,WUHU216HW,2013-07-08 04:46:00,
2013-07-07 22:47:00,63.5,50.2,29.76,WSW,248,7.4,12.1,62,0.00,,,0.03,WUHU216HW,2013-07-08 04:47:00,
2013-07-07 22:48:00,63.5,50.2,29.77,West,270,10.5,12.1,62,0.00,,,0.03,WUHU216HW,2013-07-08 04:48:00,
2013-07-07 22:52:00,63.5,50.2,29.77,West,270,9.6,11.6,62,0.00,,,0.03,WUHU216HW,2013-07-08 04:52:00,
2013-07-07 22:53:00,63.5,50.2,29.77,West,270,8.9,11.6,62,0.00,,,0.03,WUHU216HW,2013-07-08 04:53:00,
2013-07-07 22:57:00,63.5,50.2,29.77,West,270,11.0,11.9,62,0.00,,,0.03,WUHU216HW,2013-07-08 04:57:00,
2013-07-07 22:58:00,63.5,50.2,29.77,West,270,8.5,11.9,62,0.00,,,0.03,WUHU216HW,2013-07-08 04:58:00,
2013-07-07 23:02:00,63.5,49.9,29.77,West,270,9.8,11.9,61,0.00,,,0.03,WUHU216HW,2013-07-08 05:02:00,
2013-07-07 23:03:00,63.7,50.1,29.77,West,270,8.5,11.9,61,0.00,,,0.03,WUHU216HW,2013-07-08 05:03:00,
2013-07-07 23:04:00,63.7,50.1,29.77,WSW,248,9.2,11.9,61,0.00,,,0.03,WUHU216HW,2013-07-08 05:04:00,
2013-07-07 23:07:00,63.7,50.1,29.77,WSW,248,11.2,11.4,61,0.00,,,0.03,WUHU216HW,2013-07-08 05:07:00,
2013-07-07 23:08:00,63.7,50.1,29.77,WSW,248,11.2,11.4,61,0.00,,,0.03,WUHU216HW,2013-07-08 05:08:00,
2013-07-07 23:09:00,63.7,50.1,29.77,WSW,248,12.3,12.3,61,0.00,,,0.03,WUHU216HW,2013-07-08 05:09:00,
2013-07-07 23:12:00,63.7,50.1,29.77,WSW,248,12.3,12.8,61,0.00,,,0.03,WUHU216HW,2013-07-08 05:12:00,
2013-07-07 23:13:00,63.7,50.1,29.77,West,270,12.1,12.8,61,0.00,,,0.03,WUHU216HW,2013-07-08 05:13:00,
2013-07-07 23:14:00,63.7,50.1,29.77,West,270,11.9,13.4,61,0.00,,,0.03,WUHU216HW,2013-07-08 05:14:00,
2013-07-07 23:18:00,63.7,49.6,29.77,West,270,10.3,13.4,60,0.00,,,0.03,WUHU216HW,2013-07-08 05:18:00,
2013-07-07 23:19:00,63.7,49.6,29.77,West,270,9.4,13.4,60,0.00,,,0.03,WUHU216HW,2013-07-08 05:19:00,
2013-07-07 23:20:00,63.7,49.6,29.77,West,270,9.8,13.4,60,0.00,,,0.03,WUHU216HW,2013-07-08 05:20:00,
2013-07-07 23:23:00,63.9,49.2,29.77,West,270,8.5,13.4,59,0.00,,,0.03,WUHU216HW,2013-07-08 05:23:00,
2013-07-07 23:24:00,63.9,49.2,29.78,WSW,248,8.7,12.1,59,0.00,,,0.03,WUHU216HW,2013-07-08 05:24:00,
2013-07-07 23:25:00,63.9,49.2,29.77,West,270,9.2,12.1,59,0.00,,,0.03,WUHU216HW,2013-07-08 05:25:00,
2013-07-07 23:28:00,63.9,49.2,29.77,WSW,248,11.0,12.1,59,0.00,,,0.03,WUHU216HW,2013-07-08 05:28:00,
2013-07-07 23:29:00,63.9,49.2,29.78,West,270,10.3,12.1,59,0.00,,,0.03,WUHU216HW,2013-07-08 05:29:00,
2013-07-07 23:31:00,64.1,49.0,29.78,WSW,248,10.7,12.1,58,0.00,,,0.03,WUHU216HW,2013-07-08 05:31:00,
2013-07-07 23:34:00,63.9,49.2,29.78,West,270,8.7,12.1,59,0.00,,,0.03,WUHU216HW,2013-07-08 05:34:00,
2013-07-07 23:36:00,63.7,49.1,29.78,West,270,8.3,11.9,59,0.00,,,0.03,WUHU216HW,2013-07-08 05:36:00,
2013-07-07 23:39:00,63.7,49.1,29.78,WSW,248,11.0,11.9,59,0.00,,,0.03,WUHU216HW,2013-07-08 05:39:00,
2013-07-07 23:40:00,63.7,49.1,29.78,West,270,10.5,11.9,59,0.00,,,0.03,WUHU216HW,2013-07-08 05:40:00,
2013-07-07 23:41:00,63.5,49.0,29.78,WSW,248,9.6,11.4,59,0.00,,,0.03,WUHU216HW,2013-07-08 05:41:00,
2013-07-07 23:44:00,63.4,48.8,29.78,WSW,248,9.2,11.4,59,0.00,,,0.03,WUHU216HW,2013-07-08 05:44:00,
2013-07-07 23:45:00,63.4,49.2,29.78,WSW,248,7.8,11.4,60,0.00,,,0.03,WUHU216HW,2013-07-08 05:45:00,
2013-07-07 23:46:00,63.4,49.2,29.78,WSW,248,9.2,11.4,60,0.00,,,0.03,WUHU216HW,2013-07-08 05:46:00,
2013-07-07 23:49:00,63.2,49.5,29.78,West,270,8.5,11.0,61,0.00,,,0.03,WUHU216HW,2013-07-08 05:49:00,
2013-07-07 23:50:00,63.0,49.0,29.78,WSW,248,9.4,10.5,60,0.00,,,0.03,WUHU216HW,2013-07-08 05:50:00,
2013-07-07 23:51:00,63.0,49.3,29.78,West,270,7.6,10.5,61,0.00,,,0.03,WUHU216HW,2013-07-08 05:51:00,
2013-07-07 23:54:00,63.0,49.3,29.78,WSW,248,6.9,10.5,61,0.00,,,0.03,WUHU216HW,2013-07-08 05:54:00,
2013-07-07 23:55:00,63.0,49.3,29.78,West,270,9.8,10.5,61,0.00,,,0.03,WUHU216HW,2013-07-08 05:55:00,
2013-07-07 23:56:00,63.0,49.3,29.78,West,270,7.2,10.5,61,0.00,,,0.03,WUHU216HW,2013-07-08 05:56:00,
2013-07-07 23:59:00,63.0,49.0,29.79,WSW,248,8.3,10.5,60,0.00,,,0.00,WUHU216HW,2013-07-08 05:59:00,